GFSCGP_925_temp_000.txt.gz
Temp
34 33 34 36 37 38 39 38 38 39 38 36 37 37 37 34 35 35 34 33 33 33 32 31 29 29 28 27 26 26 25 25 24 24 25 25 26 26 25 25 23 23 24 23
33 33 36 37 37 37 38 38 38 39 38 37 38 37 37 36 34 35 35 34 33 33 33 31 30 29 29 28 27 26 25 25 24 25 26 26 26 27 26 26 24 24 24 23
33 35 36 36 36 36 37 37 38 38 37 37 38 36 37 38 36 35 35 35 35 34 33 32 31 30 29 29 27 27 26 25 25 25 25 25 24 24 25 25 24 24 23 23
34 36 35 34 35 37 36 39 38 38 37 36 37 36 38 39 36 35 35 35 35 34 34 33 32 30 30 29 28 27 26 25 25 25 26 25 26 27 28 27 27 26 24 23
33 34 34 34 35 37 37 39 38 38 37 37 37 36 38 38 37 37 36 36 36 35 34 33 33 31 30 30 29 28 26 26 25 25 25 26 25 27 27 27 25 24 24 23
34 35 35 35 36 37 38 37 37 38 37 36 37 37 37 38 37 39 39 37 36 36 35 34 32 31 31 30 29 28 27 26 26 25 25 25 26 26 27 26 26 25 25 24
33 34 35 36 35 36 36 36 34 34 35 35 38 37 37 39 40 40 41 40 37 36 35 34 33 32 31 30 30 29 27 26 26 26 25 25 25 25 26 26 26 26 26 25
32 31 34 35 35 36 35 36 36 33 35 35 37 35 37 39 40 41 41 40 39 37 37 35 34 33 31 31 30 29 28 27 26 26 25 25 25 25 26 26 26 26 26 25
33 32 35 36 36 37 36 36 38 37 37 37 38 37 38 40 39 40 40 39 39 38 37 36 35 33 32 31 30 29 28 27 27 27 25 25 25 25 26 26 25 25 25 25
34 32 35 35 36 37 37 37 35 37 34 34 36 37 37 38 39 40 40 39 39 38 37 37 36 34 33 32 31 29 29 28 27 27 26 26 25 25 25 26 25 25 24 23
34 33 34 35 34 35 36 36 36 37 37 35 35 36 39 38 39 39 41 40 40 39 37 37 37 36 34 33 32 31 29 28 28 28 27 26 26 26 25 25 23 23 22 22
34 34 32 33 36 36 37 36 36 35 34 36 36 37 41 40 40 40 41 42 42 40 38 37 38 36 35 33 33 32 31 30 29 28 27 27 27 26 25 24 23 21 21 21
34 33 32 32 35 35 35 36 37 37 37 36 35 36 40 40 39 40 39 40 40 38 37 37 37 36 35 34 33 33 32 31 30 29 28 27 27 26 25 23 20 22 21 23
32 34 32 33 33 35 34 35 36 36 37 35 36 37 38 39 38 39 40 39 39 36 36 35 36 35 34 34 33 32 33 32 31 31 29 28 27 26 24 21 22 23 23 23
31 31 33 33 34 35 35 35 35 35 36 36 37 37 38 38 39 39 40 41 39 36 35 34 35 34 33 33 32 31 32 31 31 31 30 28 26 23 21 20 21 24 24 23
32 30 31 32 34 34 34 35 35 35 36 36 36 37 39 39 39 39 40 40 39 36 35 34 34 34 33 32 31 31 30 30 30 29 29 28 24 22 20 19 20 22 24 23
30 31 30 31 34 33 32 34 35 35 36 36 35 37 38 38 39 39 40 39 39 37 36 34 34 34 33 32 30 30 29 29 29 27 27 26 23 21 19 19 20 21 21 21
28 29 30 31 31 29 34 36 36 36 36 37 36 37 38 38 39 39 39 39 39 38 36 35 35 34 31 31 31 30 28 28 27 26 26 25 22 21 20 19 20 20 21 20
29 29 30 29 30 32 33 34 34 34 35 37 36 37 37 37 35 34 34 34 36 37 36 34 34 32 30 31 30 29 28 27 26 25 25 23 21 20 20 20 20 20 20 20
30 29 29 30 29 29 30 28 28 29 31 36 37 36 36 36 34 38 32 33 35 35 34 33 32 30 30 30 29 28 28 27 26 25 24 22 21 21 20 20 20 19 20 20
28 28 29 29 28 29 27 27 29 28 32 37 35 34 34 34 34 30 31 32 33 33 31 31 31 31 29 29 29 29 28 28 27 25 23 21 21 21 20 20 19 20 20 20
27 28 29 28 27 27 25 29 27 27 29 30 31 32 32 30 30 30 30 30 31 31 31 32 31 29 29 29 29 29 28 27 25 24 21 20 21 21 21 19 19 19 19 19
28 29 29 28 29 24 25 23 26 28 29 30 30 30 30 30 30 31 31 31 32 32 32 31 30 28 28 28 28 28 25 24 24 21 20 20 20 20 20 19 19 19 19 21
27 28 28 25 25 24 23 24 26 27 28 29 30 31 31 30 30 30 30 30 30 30 30 30 29 29 26 25 25 24 22 22 22 21 20 19 20 19 19 19 19 20 21 20
24 25 25 25 22 24 23 22 23 25 26 27 28 28 28 28 28 27 27 28 28 28 28 28 28 27 25 24 23 23 22 22 22 20 20 20 19 19 20 19 20 21 19 20
16 19 25 25 21 19 18 20 22 23 24 25 26 25 25 26 26 25 25 26 25 26 26 26 26 25 24 23 23 23 21 21 21 20 21 21 21 21 20 19 17 18 18 18

GFSCGP_925_temp_003.txt.gz
Temp
35 35 35 37 38 39 40 40 40 41 41 39 39 39 39 39 38 38 37 37 36 35 35 34 32 32 31 30 28 27 27 26 25 25 25 25 25 27 27 27 26 25 24 24
36 35 37 38 39 38 39 39 40 41 40 40 39 39 40 39 38 38 38 37 37 36 36 34 33 32 31 30 29 28 27 26 25 25 24 27 27 28 28 28 27 26 25 25
36 37 38 38 38 38 39 39 40 40 39 39 40 38 39 40 39 38 39 39 38 37 37 35 34 32 31 30 29 28 27 26 26 26 26 26 26 27 27 28 26 25 25 25
36 39 38 37 37 38 38 40 40 40 38 37 40 37 39 40 40 38 38 39 38 38 37 36 34 33 32 31 29 29 27 27 26 25 27 27 27 27 28 28 29 27 25 25
36 37 37 37 38 39 38 40 40 40 40 35 39 38 39 40 40 40 39 39 39 39 38 37 35 33 32 32 30 29 28 27 27 26 26 27 26 29 29 29 28 27 25 25
37 39 38 38 39 39 39 39 39 40 39 38 39 38 39 38 40 41 41 40 39 39 39 37 36 34 33 32 31 30 28 27 27 26 25 26 27 28 29 29 28 27 26 25
35 37 38 39 37 38 38 38 36 36 37 37 40 39 35 41 42 42 42 42 40 39 39 38 36 35 33 33 32 31 29 27 27 27 26 26 26 26 27 28 27 28 27 27
34 34 37 38 37 37 37 38 37 34 36 38 39 38 40 42 43 43 43 43 42 40 40 38 37 36 34 33 32 31 30 28 27 27 27 27 26 27 27 27 28 27 27 27
36 35 38 38 38 38 38 38 39 38 39 38 39 40 41 42 42 42 42 42 42 41 40 39 38 36 34 33 32 31 30 29 28 28 27 26 26 26 28 28 27 27 27 27
36 35 37 38 38 38 38 39 38 39 35 36 39 39 39 40 40 41 41 42 42 42 40 40 38 37 35 34 33 31 30 29 28 28 28 27 26 26 27 27 27 27 26 25
36 36 36 37 36 36 36 37 38 38 38 36 37 39 42 41 40 40 41 42 43 42 41 40 39 38 36 35 33 32 31 30 29 29 29 28 27 27 26 27 26 26 26 24
36 36 35 36 38 38 38 37 38 38 36 38 39 39 42 42 41 41 41 42 43 42 41 41 40 39 37 36 35 33 32 31 30 30 29 28 28 27 27 26 26 25 24 24
36 35 34 34 37 38 36 37 38 39 39 37 37 38 42 42 41 42 41 42 42 42 42 41 41 40 39 37 35 35 33 33 32 30 30 29 28 27 27 26 26 24 24 23
34 35 34 35 35 37 35 36 37 38 38 37 37 38 40 41 40 40 41 41 42 42 40 40 40 40 40 38 36 35 35 34 33 32 31 29 28 28 27 26 25 23 22 22
34 33 35 35 36 37 37 37 37 37 37 37 38 38 39 40 40 41 41 41 41 41 40 39 39 39 38 37 36 35 35 35 34 33 31 30 28 27 27 25 23 22 22 22
34 32 34 34 36 36 36 37 37 37 37 37 38 38 40 41 41 41 40 40 40 41 42 39 38 38 37 37 36 35 34 35 34 32 32 31 28 27 26 24 23 21 22 22
32 33 32 32 34 35 34 35 36 37 38 37 36 38 39 39 40 41 41 40 40 41 42 40 38 37 37 36 35 35 33 33 33 32 31 31 28 25 23 23 22 21 21 22
31 31 32 32 33 31 35 36 37 36 37 38 38 38 38 39 40 41 41 41 41 41 41 41 40 38 36 35 35 34 33 32 32 30 30 29 26 23 21 21 21 21 21 22
31 31 30 31 32 30 32 33 33 32 34 38 38 38 38 39 40 39 41 41 41 41 42 41 39 37 35 35 34 33 32 30 30 29 28 28 25 23 21 21 21 22 22 23
30 30 30 31 30 31 34 32 33 33 32 36 37 37 38 38 37 39 40 40 39 39 41 40 38 37 34 34 33 32 31 30 29 28 28 27 24 22 22 21 21 22 22 22
28 29 28 29 30 32 31 32 32 30 32 31 32 34 36 37 38 35 36 37 37 38 38 36 36 34 33 33 32 31 30 30 29 28 27 25 23 22 22 21 21 21 21 21
28 29 29 30 29 29 30 32 30 29 30 32 32 33 34 38 35 33 34 34 35 36 35 34 34 33 32 32 31 30 30 29 28 27 26 24 23 22 22 21 21 20 20 21
30 31 30 31 31 28 29 29 29 30 31 31 32 34 34 33 33 33 32 33 33 33 33 33 32 31 31 31 30 30 29 28 27 26 24 22 22 21 22 22 21 20 21 22
29 32 32 30 27 27 28 28 29 30 30 31 32 33 33 32 32 33 33 33 33 33 32 32 31 30 30 30 29 28 27 26 25 22 21 21 21 21 21 22 20 20 20 21
19 26 29 27 26 25 25 26 26 27 28 29 27 28 28 29 29 29 29 29 31 31 31 30 29 28 27 27 26 26 25 25 22 21 21 21 21 21 21 21 20 21 21 21
15 17 24 27 26 25 23 24 25 25 25 26 26 25 26 26 25 26 27 28 28 28 28 28 28 27 26 26 25 25 24 24 23 22 22 22 22 22 20 20 18 19 19 19

GFSCGP_925_temp_006.txt.gz
Temp
35 34 34 36 36 37 38 39 39 40 40 40 38 28 25 31 38 38 37 37 36 36 35 35 33 33 32 30 29 28 27 28 27 26 25 25 25 26 26 27 27 25 25 25
35 34 36 37 38 37 38 38 39 41 40 40 40 33 31 35 38 39 38 37 37 37 36 35 34 33 32 31 29 28 27 27 27 26 26 25 25 26 26 27 27 26 25 25
34 36 37 38 37 37 38 38 39 40 41 41 40 39 38 39 39 39 39 39 38 37 37 35 34 33 33 31 29 28 27 26 26 26 26 26 25 26 27 27 27 26 26 25
36 37 38 37 37 38 37 39 40 40 39 37 39 36 37 38 39 38 39 39 39 38 37 36 35 33 33 32 30 28 27 26 25 26 25 25 26 27 28 28 27 27 26 25
35 36 37 37 37 39 38 40 40 40 39 38 38 37 38 38 38 39 39 39 40 39 38 37 35 34 33 32 30 29 27 26 26 25 26 26 27 27 28 29 28 27 25 25
36 39 38 38 39 39 40 39 39 40 39 37 39 37 37 39 37 38 40 40 40 40 39 38 36 34 33 33 31 29 28 26 26 25 26 26 26 27 28 29 27 26 25 25
36 37 39 39 38 39 39 38 36 36 37 37 40 37 37 39 40 40 35 37 40 40 39 38 36 35 33 33 32 30 28 27 26 26 25 26 26 27 27 28 28 27 27 25
34 34 37 39 38 38 38 38 37 34 36 37 40 38 40 40 40 39 37 34 41 41 41 39 37 35 34 33 32 31 29 27 27 26 25 25 26 26 26 27 28 28 28 27
36 35 39 38 39 39 38 37 39 37 38 38 39 40 42 42 40 37 40 43 42 41 40 39 38 36 34 33 32 31 29 27 27 27 26 25 25 26 26 28 28 27 27 27
36 35 38 39 39 39 38 39 36 37 34 35 38 38 40 40 41 40 39 40 42 42 41 40 39 37 35 34 32 32 30 28 27 27 26 26 25 26 27 28 28 27 27 28
37 36 37 39 37 37 37 37 37 38 38 37 36 38 42 40 41 41 41 42 42 42 41 41 39 38 36 34 33 32 31 29 28 27 27 27 26 26 26 27 27 27 27 27
37 36 35 36 39 39 38 37 37 36 35 38 37 39 43 41 42 42 41 42 42 41 41 41 40 38 36 35 34 32 31 30 29 28 28 27 27 26 26 26 27 27 27 26
38 36 34 34 37 39 38 38 37 37 37 36 36 38 41 41 40 41 41 41 41 42 40 40 41 38 37 35 34 33 32 31 30 29 28 28 27 27 26 26 26 26 26 25
35 36 34 35 35 37 37 37 38 37 36 36 37 38 39 40 39 41 40 41 41 41 38 40 40 38 37 36 34 34 33 32 31 29 29 29 28 27 27 26 26 26 26 25
35 33 35 36 36 37 37 37 37 37 37 36 38 38 39 40 40 39 41 40 40 41 39 39 39 37 35 35 34 34 34 33 32 30 30 29 28 28 27 27 26 26 25 24
35 32 33 34 36 36 37 37 38 38 37 37 38 38 41 41 40 38 40 40 39 39 40 38 37 37 36 35 34 34 34 33 33 32 30 30 29 28 27 27 26 25 25 23
33 33 32 32 35 35 35 36 37 38 38 37 36 38 40 39 39 40 38 39 39 39 39 39 38 37 37 36 34 34 33 34 33 32 31 31 29 28 27 27 26 25 24 23
32 31 32 33 33 31 35 38 38 37 38 38 38 38 38 38 38 39 39 38 37 39 39 39 40 38 37 38 36 35 34 34 33 32 31 30 29 28 27 26 26 24 22 22
32 32 31 31 32 33 34 37 36 36 36 37 38 38 39 39 39 38 39 39 39 39 39 38 40 40 37 37 37 35 34 33 32 32 31 31 29 27 26 25 23 23 22 22
30 30 30 31 30 30 33 34 35 35 32 34 34 34 35 37 37 38 39 40 40 40 40 39 40 39 36 36 36 34 33 33 32 31 31 30 27 25 23 23 22 22 22 22
27 27 28 30 30 32 31 33 34 31 32 32 33 33 34 34 34 34 36 35 36 39 39 39 38 36 35 35 35 33 33 32 32 31 29 28 25 24 22 21 21 21 22 22
26 26 28 29 29 28 33 29 30 30 32 32 33 33 33 34 35 36 36 35 35 36 37 37 35 34 34 34 33 31 30 30 30 28 28 26 23 23 22 22 22 22 21 21
26 28 28 29 30 31 31 30 31 32 31 31 31 33 34 35 35 35 34 34 35 36 36 36 33 32 32 31 30 30 29 29 28 27 26 24 22 22 22 21 21 21 21 21
28 23 28 29 30 30 31 31 31 31 28 27 26 26 26 32 34 34 34 33 33 33 32 32 31 30 29 29 29 28 28 27 26 25 23 22 22 22 22 21 21 22 22 22
18 19 22 28 28 28 28 29 29 28 28 27 25 24 23 24 24 27 28 28 30 29 28 29 29 29 29 28 27 27 26 25 23 23 22 21 21 22 22 21 21 21 21 22
17 17 18 21 26 25 25 26 26 27 27 27 25 24 22 22 22 21 22 23 25 25 26 26 27 26 26 26 26 26 24 23 22 22 22 21 21 21 20 19 18 19 20 20

GFSCGP_925_temp_009.txt.gz
Temp
31 29 29 30 32 33 33 33 34 36 37 36 32 31 32 33 32 31 32 32 32 31 31 31 31 32 31 30 29 28 28 26 25 25 25 25 24 25 26 27 26 26 25 25
30 30 31 33 33 34 34 33 34 36 38 35 31 32 34 35 33 33 33 32 32 32 32 31 31 31 30 29 29 28 28 28 25 25 25 25 25 25 26 27 27 26 25 25
30 31 34 34 33 34 33 33 33 34 37 37 32 30 30 32 34 32 34 34 33 32 32 31 31 31 30 28 28 28 28 28 26 26 25 25 25 25 25 25 26 26 25 25
31 33 34 33 33 34 32 35 36 36 35 34 35 31 29 31 32 31 32 34 34 33 33 32 31 31 30 28 28 27 27 27 27 26 25 25 25 25 25 26 26 26 25 25
31 32 33 33 34 35 34 35 36 36 35 33 35 33 31 31 30 29 31 35 35 34 33 32 31 31 31 29 28 27 27 27 26 26 26 25 25 25 26 26 26 26 25 25
32 34 34 34 35 36 36 35 35 35 34 32 33 34 31 32 30 29 34 36 36 35 34 32 33 32 31 29 28 26 26 26 25 26 26 25 25 25 26 27 27 26 25 25
32 33 34 35 34 34 35 32 31 31 31 30 32 33 31 36 35 36 36 36 36 36 35 34 32 31 31 30 28 26 26 25 25 25 26 25 25 26 27 27 26 25 25 25
29 29 33 35 34 33 33 33 31 28 30 31 32 33 34 37 37 38 36 37 37 36 36 34 32 32 31 30 28 27 25 25 25 25 25 25 26 26 27 27 26 26 26 25
30 30 34 36 36 35 33 32 34 30 31 30 33 33 35 36 36 37 36 36 36 37 35 35 33 32 31 30 28 28 26 25 25 25 25 25 25 26 26 26 27 26 26 26
31 29 33 36 36 35 34 35 32 33 30 30 33 32 33 34 35 35 34 34 35 35 35 36 34 32 31 31 29 28 26 26 25 25 25 25 25 26 25 26 27 27 27 27
33 31 32 33 33 33 33 33 32 31 32 31 30 32 34 33 34 34 35 36 35 35 36 36 35 34 32 31 30 29 27 26 25 25 25 25 25 25 25 26 27 27 27 27
33 31 30 31 34 36 35 32 31 29 29 29 31 32 35 37 36 36 36 35 36 33 36 36 35 34 32 31 31 29 27 26 26 26 25 25 25 24 24 25 26 27 27 27
33 32 29 30 32 34 34 35 32 33 28 29 28 32 37 37 38 39 37 36 35 34 35 36 36 33 32 31 31 30 28 27 26 26 26 25 25 25 24 25 25 26 27 27
29 31 32 31 30 32 31 34 34 32 31 31 32 32 32 35 35 34 36 35 37 34 32 34 35 33 33 32 31 31 29 28 27 26 26 26 25 25 25 25 25 26 26 27
28 30 32 32 34 33 34 34 35 33 33 31 32 32 32 34 33 33 35 33 34 35 32 31 34 33 32 32 31 31 30 30 28 27 26 26 26 26 25 25 25 25 25 25
22 26 28 29 33 34 34 34 35 35 34 33 33 33 33 33 33 35 34 34 36 35 33 32 31 33 32 31 31 31 30 30 30 28 27 27 27 26 25 25 25 24 25 25
21 23 26 28 31 31 31 33 34 34 35 34 33 34 33 32 33 35 33 34 35 36 33 33 32 29 33 32 32 31 30 30 30 29 28 27 27 26 26 25 25 25 24 24
22 22 23 27 28 27 31 33 35 34 34 34 33 32 31 31 31 31 35 36 33 34 33 31 33 30 31 33 32 31 31 30 30 29 28 28 27 27 26 25 25 25 25 24
24 23 24 25 26 29 31 33 34 33 32 34 31 31 33 33 33 33 32 31 33 34 34 30 31 33 33 33 32 32 31 30 30 29 28 28 27 27 26 25 25 24 23 23
26 24 24 25 26 27 30 33 32 33 29 30 30 29 30 30 28 27 30 33 32 31 31 31 35 34 32 32 33 31 30 30 29 30 29 28 28 27 25 25 24 24 24 24
23 24 24 24 26 29 28 29 32 28 27 30 30 30 30 29 28 29 29 33 33 32 33 33 35 32 33 33 32 31 31 30 30 30 29 28 27 25 25 24 24 22 22 22
17 17 23 25 26 27 27 28 29 25 27 27 26 26 30 30 29 31 30 34 32 34 34 30 28 28 33 32 31 30 31 31 30 29 28 26 24 23 24 24 23 23 22 22
17 18 18 22 23 25 26 25 25 24 23 24 23 24 24 23 24 25 29 30 31 31 28 29 26 25 28 31 30 27 27 30 28 25 23 22 22 23 22 21 21 21 21 21
21 19 21 22 25 25 23 26 23 22 22 23 22 22 22 20 20 20 21 22 25 26 26 26 26 25 24 26 26 26 27 27 25 23 22 21 21 21 21 22 21 21 20 20
17 17 18 19 22 22 21 21 24 23 23 22 22 21 20 20 19 19 19 18 19 22 24 26 25 25 24 25 25 25 25 24 22 21 21 21 21 21 20 20 20 21 21 21
15 16 17 18 16 17 20 21 22 22 22 22 21 20 19 18 17 18 17 16 17 17 18 24 24 24 24 24 23 23 23 23 21 21 20 21 20 18 19 19 18 20 21 21

GFSCGP_925_temp_012.txt.gz
Temp
28 26 27 27 27 29 29 29 29 32 33 32 31 31 32 31 30 29 29 29 29 30 29 29 29 28 27 26 25 24 24 25 25 25 24 25 25 26 26 25 25 25 25 25
27 27 27 29 29 30 30 30 30 31 33 33 30 32 32 31 31 30 30 29 29 30 30 29 29 28 27 25 25 24 25 25 25 25 25 25 26 25 26 25 25 26 26 25
27 28 30 30 30 30 30 30 30 30 32 33 30 30 31 31 31 31 31 31 30 30 29 29 29 28 28 26 25 25 25 25 25 25 25 25 25 25 25 25 25 25 25 25
27 30 30 30 30 29 27 31 32 32 31 29 32 28 29 30 30 30 31 31 30 30 30 29 29 29 28 27 26 26 25 26 25 25 25 24 24 23 24 25 25 25 25 25
28 29 30 30 30 31 30 31 31 32 31 30 31 28 29 30 29 29 30 31 31 31 31 30 30 30 30 28 26 26 26 26 26 25 25 24 25 25 25 25 25 25 26 25
29 31 31 31 32 32 32 31 30 30 30 27 29 31 28 27 31 31 33 32 32 32 31 31 31 30 30 29 27 26 26 25 26 25 25 25 24 25 25 25 25 25 25 25
30 30 31 31 29 30 30 28 27 28 29 27 29 29 30 31 32 33 34 31 32 33 32 31 30 30 30 29 27 26 25 25 25 25 25 25 25 25 25 25 25 25 24 25
27 27 29 31 31 29 27 29 29 27 26 28 29 28 30 31 34 34 35 34 32 33 33 32 31 30 30 29 27 26 24 25 24 24 25 25 25 25 25 25 25 25 25 25
24 27 30 32 32 31 30 27 30 27 27 26 28 30 31 32 32 33 33 32 33 34 33 33 31 31 30 29 27 26 24 25 24 24 25 24 25 25 24 25 25 26 26 25
28 26 28 32 32 32 30 30 30 24 28 28 28 29 32 32 32 30 33 33 34 34 34 34 33 31 30 30 27 26 25 25 24 24 24 24 25 24 24 25 25 25 25 25
30 26 29 30 29 30 30 29 27 28 28 29 25 30 30 30 30 30 33 35 35 35 34 34 34 32 31 30 28 26 25 25 24 24 24 24 24 24 24 25 25 25 26 26
29 28 28 29 30 31 32 31 28 30 27 27 31 31 35 32 31 30 31 34 36 35 34 33 34 32 31 30 28 27 25 25 25 24 24 24 24 24 24 25 25 25 26 26
23 28 28 27 28 28 29 31 31 24 25 29 27 29 31 32 32 34 32 32 32 33 32 31 32 31 31 30 29 27 26 26 25 25 24 24 24 23 24 24 25 25 25 26
19 22 26 29 30 29 28 30 31 31 31 30 29 30 32 32 34 30 30 32 33 33 32 32 32 32 30 30 29 28 27 26 26 25 25 24 24 23 23 24 25 24 25 25
15 16 23 24 29 32 31 30 31 30 31 31 32 28 29 29 29 32 32 31 32 35 31 32 33 32 30 29 29 29 27 27 26 25 25 25 24 24 23 24 24 24 24 24
14 16 18 22 28 32 32 32 32 31 32 31 29 29 29 31 30 30 31 32 31 31 30 31 33 32 30 30 29 29 28 27 26 26 25 25 25 24 24 23 23 24 23 24
14 15 17 18 24 30 29 32 32 32 31 32 30 30 28 29 29 29 30 30 31 30 30 30 33 32 32 31 30 29 29 27 27 26 26 25 25 24 24 24 23 23 23 23
16 16 17 18 21 26 30 33 33 31 31 31 32 31 30 31 32 28 29 31 30 32 30 31 31 32 32 32 30 30 29 28 27 27 26 25 25 25 24 24 23 23 23 22
20 18 18 19 20 25 31 31 30 29 30 30 30 30 30 30 29 29 30 30 30 29 30 29 29 30 31 31 31 30 29 29 28 27 26 26 25 25 24 24 23 22 22 22
20 21 20 21 22 24 28 31 30 29 25 28 28 28 29 28 29 25 28 30 29 28 29 29 31 30 30 31 31 30 29 29 28 28 27 26 26 25 24 24 23 23 23 22
16 15 20 21 22 23 25 25 30 28 25 28 28 28 27 26 25 27 29 31 31 31 30 31 28 28 29 30 31 30 29 29 29 29 28 27 26 25 25 24 23 23 22 23
15 16 18 20 20 22 24 25 29 24 23 23 23 23 22 21 22 24 25 28 30 31 31 31 26 25 31 31 30 30 29 30 29 29 28 27 26 25 24 23 22 22 23 22
15 15 17 19 18 19 20 22 21 20 20 20 20 21 21 21 20 20 20 20 22 22 23 23 24 25 26 28 30 30 30 30 29 28 27 26 25 24 22 22 21 21 21 20
15 16 17 19 20 17 18 20 20 20 20 20 20 19 19 19 19 18 18 18 18 18 19 19 20 21 23 26 28 30 29 28 27 26 23 22 22 21 21 21 21 20 20 19
16 16 17 17 17 17 18 18 19 20 20 20 19 19 18 18 17 17 16 16 17 17 17 17 17 17 16 22 26 26 26 25 24 22 22 21 20 20 19 19 19 19 19 21
15 15 16 17 15 15 16 17 18 19 19 19 18 17 17 17 16 16 15 15 16 17 17 16 17 16 17 17 17 23 23 23 22 21 21 20 17 16 16 17 18 19 21 21

GFSCGP_925_temp_015.txt.gz
Temp
26 25 23 25 25 27 28 29 28 29 32 32 30 28 28 28 28 27 26 27 26 26 26 26 26 26 26 25 24 24 23 23 23 23 23 23 24 24 24 25 25 25 25 24
25 25 25 27 26 27 27 28 28 29 30 30 28 28 29 29 28 28 27 27 27 27 26 26 27 26 26 25 24 24 24 24 24 23 24 23 24 25 25 25 25 25 25 25
25 26 27 27 27 27 26 26 28 28 29 31 29 28 28 29 29 29 29 29 28 28 26 26 27 27 26 25 24 24 24 24 24 23 24 24 24 24 25 25 25 24 25 24
25 27 28 27 27 27 25 28 29 30 29 27 30 26 27 28 28 28 28 28 29 29 29 27 27 27 27 25 25 24 24 24 24 24 23 23 24 23 24 25 25 25 24 24
25 26 27 27 29 27 28 30 29 30 28 28 29 27 27 28 28 28 29 29 29 29 29 28 27 28 27 26 25 24 24 24 24 24 23 23 23 24 25 25 25 25 25 25
27 28 29 28 29 29 30 30 28 27 25 25 29 27 29 26 29 29 30 30 30 29 29 29 29 29 27 27 25 24 23 23 23 24 23 24 23 24 24 25 25 25 25 25
27 28 28 29 28 28 28 25 24 24 24 27 27 26 30 29 30 32 30 30 31 30 30 29 29 29 29 27 25 24 23 23 23 23 23 23 24 24 25 25 25 25 24 25
25 25 28 28 28 27 25 26 21 24 23 27 26 25 27 31 30 32 33 32 31 31 31 30 30 29 29 28 26 25 24 23 22 22 23 23 24 24 24 25 25 25 25 25
23 25 28 30 29 29 27 26 28 25 24 24 25 27 29 30 30 30 31 33 32 31 31 31 30 30 29 29 27 25 24 24 23 23 23 23 23 23 23 25 25 25 25 25
25 25 26 29 29 28 29 27 28 20 25 26 25 26 27 29 30 28 30 30 31 31 31 31 31 30 30 29 28 26 25 25 24 24 23 23 24 24 24 25 25 25 25 25
24 24 27 27 26 27 26 28 25 24 23 27 27 28 29 29 29 29 29 30 31 30 31 32 32 31 31 30 28 26 25 25 25 24 24 24 23 23 23 24 25 26 25 25
18 19 25 27 27 30 29 29 24 26 25 23 27 28 30 31 30 28 29 29 30 32 32 32 32 31 31 29 28 26 26 25 25 25 24 24 24 23 23 24 25 25 25 25
17 17 22 24 26 27 27 27 28 26 24 28 27 27 28 29 29 28 29 28 29 29 31 31 32 30 30 29 29 27 26 25 25 25 24 24 23 23 23 24 24 24 25 25
15 15 19 21 24 25 26 28 29 27 27 29 29 29 30 28 28 28 28 28 27 28 30 30 28 29 29 29 29 27 26 26 25 25 24 24 23 23 23 24 24 23 24 24
13 14 17 19 20 22 25 27 29 27 29 29 30 26 28 27 27 28 29 30 28 28 29 30 30 30 29 29 29 27 26 26 26 25 24 24 24 23 23 23 23 23 23 23
12 14 15 18 22 23 25 27 29 30 30 29 29 26 27 29 27 28 28 28 29 29 29 29 33 32 30 29 28 28 26 26 26 25 25 24 24 23 23 23 23 23 23 23
13 13 14 15 19 20 23 27 29 30 29 29 29 28 27 28 27 27 28 27 28 29 28 29 28 30 30 29 29 28 27 26 25 25 25 25 24 24 23 23 22 22 22 22
13 13 14 15 17 21 26 27 30 30 29 28 29 28 27 29 31 28 27 27 27 28 27 26 29 30 30 30 29 29 28 26 25 25 25 25 24 24 23 22 22 22 22 22
13 14 14 16 16 20 26 27 26 29 28 28 28 28 28 27 29 29 26 26 27 28 27 27 28 30 31 30 29 29 28 27 26 25 25 25 24 24 23 23 22 22 22 21
14 15 17 16 18 20 24 22 22 22 29 26 25 27 27 25 27 30 28 27 27 27 25 26 27 29 30 30 30 28 28 27 26 26 26 25 25 24 24 23 23 23 23 22
14 16 15 17 17 19 19 19 22 25 27 26 25 25 23 25 27 26 27 28 25 25 25 26 27 24 28 30 30 28 28 27 27 27 26 26 25 24 24 23 23 22 22 22
15 16 15 17 18 18 19 20 20 19 18 23 23 23 21 21 21 20 20 20 19 19 20 21 21 21 22 27 28 28 27 28 28 27 27 26 25 24 24 23 22 22 22 22
14 16 15 18 18 18 19 19 18 18 18 19 20 20 21 20 18 18 18 18 18 17 18 18 18 18 20 22 23 25 28 28 28 27 27 26 25 24 23 22 22 22 22 22
15 13 16 17 19 18 18 18 18 18 18 18 18 18 18 17 17 17 17 17 17 17 18 18 19 18 17 19 22 22 23 25 28 27 27 26 25 24 23 22 22 22 22 21
11 13 16 16 17 18 17 17 17 17 18 18 17 17 17 17 16 16 15 15 16 16 16 17 16 16 18 20 21 22 24 22 24 26 26 24 23 23 22 22 22 22 21 20
13 15 15 16 16 17 15 15 17 17 17 17 17 16 16 16 15 15 15 15 15 16 16 16 17 17 18 19 20 21 23 25 21 23 22 22 22 18 16 17 17 19 19 19

GFSCGP_925_temp_018.txt.gz
Temp
23 22 22 22 23 26 26 27 29 29 31 31 28 28 25 26 26 26 25 25 25 25 25 25 24 24 23 23 23 24 23 23 23 22 21 22 22 23 24 24 25 25 25 24
22 23 23 24 24 26 26 26 26 28 30 31 29 28 26 26 26 26 26 25 25 25 25 25 25 24 24 23 23 23 24 24 23 23 23 22 23 24 24 24 25 25 25 25
24 24 25 25 24 25 24 25 26 28 29 29 28 26 27 27 27 27 27 27 26 26 25 25 25 25 25 24 23 23 24 24 24 23 23 22 22 23 23 24 24 25 25 25
24 25 26 24 25 25 23 25 28 28 27 26 28 25 26 26 26 27 27 26 26 26 26 25 25 25 25 24 24 24 23 23 23 23 23 22 22 22 22 23 24 24 24 25
24 24 25 25 26 25 26 27 27 28 27 26 27 26 25 25 25 26 27 27 27 27 27 26 26 26 25 25 24 24 23 23 23 23 23 23 22 23 23 24 24 24 24 25
25 26 27 26 27 26 27 28 25 23 22 23 26 26 24 24 27 27 28 28 28 28 28 27 27 26 26 26 25 24 23 23 23 23 23 23 23 23 23 24 24 24 24 25
26 26 27 26 26 26 26 24 22 23 23 26 24 25 29 27 28 29 28 29 29 29 28 28 27 26 27 26 25 24 23 22 23 22 23 23 23 23 24 24 25 24 24 24
24 23 26 26 26 25 24 23 20 22 22 25 23 25 26 29 28 30 30 30 30 29 29 29 28 27 27 26 25 24 23 23 22 22 22 23 23 23 23 24 25 25 25 25
22 24 27 27 27 28 24 25 24 22 23 22 23 25 28 28 28 27 29 30 29 30 29 29 29 28 28 27 26 24 24 23 22 22 22 22 22 23 23 24 25 26 26 25
24 24 25 28 28 27 25 24 24 19 23 23 23 25 27 27 29 27 27 28 30 30 30 30 29 29 28 28 26 25 24 24 23 22 22 22 22 23 23 24 24 25 26 25
17 22 26 25 25 27 24 24 23 23 20 22 23 26 24 28 26 28 29 28 29 30 30 30 30 30 29 29 28 26 25 24 23 22 22 22 22 22 22 23 24 26 25 25
17 16 22 24 26 27 29 27 23 25 23 20 21 26 28 28 30 27 28 27 28 28 28 29 30 30 30 29 28 27 25 25 24 23 22 22 22 22 22 22 24 25 25 25
16 16 20 23 26 26 25 26 25 25 21 25 24 26 31 28 28 28 27 26 26 26 26 27 29 29 29 29 28 28 26 25 25 24 23 23 23 22 22 22 23 24 25 24
15 14 17 19 21 20 21 24 25 26 26 27 27 28 29 28 27 28 26 25 26 26 25 25 27 29 29 29 28 27 27 26 25 25 24 23 23 23 22 23 23 23 24 24
13 16 16 18 18 19 20 22 23 23 27 26 28 28 27 26 25 26 28 26 27 27 26 24 26 27 26 28 28 27 26 26 25 25 24 24 23 23 23 22 23 23 23 24
11 15 14 16 19 20 20 22 23 24 25 25 27 25 26 27 25 26 26 26 26 26 27 25 25 26 25 27 27 27 26 25 25 25 24 24 23 23 23 22 23 22 22 23
12 12 13 15 17 18 20 24 24 25 25 26 26 27 28 27 25 25 27 26 26 25 26 26 25 26 27 28 28 27 26 25 25 25 24 24 23 23 22 22 22 22 22 22
12 12 12 13 15 18 23 22 24 25 27 26 27 27 26 28 30 27 27 28 26 26 25 25 27 27 27 29 29 28 27 25 24 24 24 24 23 23 23 22 22 22 22 22
12 11 13 14 14 19 22 21 20 20 21 25 27 27 25 27 27 27 25 24 26 26 24 25 26 27 29 30 29 28 26 25 24 24 24 24 23 23 23 22 22 22 22 21
11 13 13 12 15 17 21 20 21 19 19 20 22 26 27 24 25 26 27 25 24 25 24 25 25 25 26 27 28 27 25 25 24 24 24 24 24 23 23 22 22 22 22 21
10 10 11 14 14 17 19 19 20 22 22 19 19 20 25 26 28 24 20 19 19 20 21 22 22 21 24 27 27 26 25 25 25 25 24 24 24 23 23 23 23 22 22 22
11 11 11 12 13 15 19 19 21 19 18 19 18 19 20 21 19 19 19 18 18 19 20 20 19 19 21 24 27 24 24 25 26 25 25 24 24 24 23 23 22 22 22 22
11 13 13 14 15 16 17 18 17 17 17 18 17 17 18 19 19 19 18 18 18 18 18 18 19 18 19 21 24 21 21 25 26 26 26 25 24 24 24 23 22 22 22 22
13 12 13 14 17 16 17 17 16 16 16 17 16 17 17 17 18 17 17 17 17 17 17 18 18 17 18 21 22 21 22 23 25 26 25 25 24 23 23 22 22 23 22 22
10 10 11 12 15 16 17 16 15 16 16 16 17 16 16 16 16 16 16 16 16 16 16 16 16 16 17 19 20 21 22 22 23 23 24 25 25 24 23 22 22 23 23 23
10 10 11 13 14 15 15 15 15 16 16 16 16 16 15 15 15 16 16 16 16 16 17 17 17 18 17 17 17 17 18 19 19 21 23 23 22 22 22 19 19 22 22 22

GFSCGP_925_temp_021.txt.gz
Temp
26 26 27 28 28 29 30 31 31 33 34 33 33 33 32 30 30 30 29 28 28 28 28 26 25 25 24 23 23 22 22 22 21 21 22 22 22 22 22 22 24 24 25 25
25 26 28 28 27 28 29 30 31 31 32 32 33 33 34 31 30 30 29 29 28 28 28 27 26 25 25 24 23 22 22 22 21 22 22 22 22 23 23 23 23 24 25 25
27 28 28 27 27 27 29 29 31 31 31 32 32 33 32 31 31 31 30 30 29 29 28 28 26 26 25 25 23 23 22 22 22 22 22 21 22 22 22 23 23 24 25 25
28 29 28 27 27 28 28 30 30 30 30 31 32 32 31 32 30 30 30 30 29 30 29 29 27 26 26 25 24 23 23 22 22 22 22 22 23 24 24 24 23 23 24 25
28 28 27 27 28 28 29 30 30 31 31 31 31 31 34 30 31 30 30 30 30 30 30 29 28 27 26 26 25 24 23 22 22 22 22 22 23 24 24 24 23 23 24 25
30 28 29 29 29 29 30 29 29 29 31 29 31 31 33 33 32 33 32 31 30 30 31 30 28 27 27 26 25 24 23 22 22 22 22 22 23 24 24 23 23 23 23 23
29 28 29 30 29 29 30 30 29 28 29 29 33 31 32 34 33 35 34 32 31 31 31 30 29 28 27 27 26 25 24 23 22 22 22 22 23 23 23 23 23 24 24 23
28 27 29 29 30 29 29 30 30 28 30 31 30 30 32 34 35 34 35 34 33 32 31 31 31 29 28 27 26 25 25 23 23 22 22 22 22 23 23 23 24 24 24 24
28 28 29 30 30 31 28 29 31 30 27 29 32 32 32 33 34 34 34 35 34 33 32 31 31 30 28 28 27 26 25 24 23 23 23 22 22 22 23 24 23 24 24 24
27 28 30 30 31 31 29 31 28 29 28 28 31 30 33 32 34 33 33 34 34 34 33 33 32 31 30 28 28 26 25 25 24 23 23 23 22 22 23 23 23 24 24 24
23 27 27 30 29 29 28 29 30 31 30 30 30 32 32 33 33 34 35 35 35 34 34 34 33 31 30 29 28 27 26 25 24 23 23 23 23 22 22 23 23 23 24 24
20 25 28 28 30 32 31 30 30 29 27 29 31 32 33 34 34 34 35 35 34 34 33 33 33 32 31 30 29 28 27 26 25 24 24 23 23 23 23 23 23 23 23 24
20 23 26 27 29 29 30 31 31 31 31 28 30 32 34 33 32 34 34 34 32 32 31 32 33 33 32 31 30 29 28 27 26 25 24 24 23 23 23 23 23 23 23 23
19 20 24 28 27 25 25 28 30 30 30 30 30 32 33 33 32 32 33 33 33 32 32 31 31 31 32 31 30 29 29 28 27 26 25 24 23 23 23 23 23 23 23 22
19 20 20 21 21 22 23 24 26 27 29 30 31 31 32 32 32 33 34 33 32 32 32 31 31 29 29 30 29 28 29 28 27 26 25 25 24 24 23 23 23 23 22 22
17 19 19 20 22 22 23 24 24 25 26 27 28 29 32 30 32 32 33 34 33 32 32 32 32 30 29 29 28 28 28 28 27 26 25 25 24 24 23 23 23 22 22 22
16 18 19 20 21 22 22 24 25 26 27 28 27 29 31 31 31 31 31 33 33 34 34 33 32 31 30 29 28 28 27 27 26 26 25 25 24 23 23 23 22 22 22 22
15 16 18 19 20 20 25 26 26 27 28 29 29 30 30 31 32 32 33 33 33 33 33 32 33 32 30 30 31 29 28 26 25 25 25 25 24 24 23 23 23 23 23 22
14 16 17 18 20 22 23 25 25 25 28 28 26 28 30 32 32 31 32 32 31 32 32 31 31 31 29 29 29 28 28 26 26 25 25 25 24 24 23 23 23 23 23 23
15 15 16 18 18 20 24 25 24 23 24 24 23 25 26 30 31 33 34 32 32 31 31 30 29 29 28 28 29 28 28 27 26 26 25 25 24 24 24 23 23 23 23 23
14 14 14 16 17 20 23 23 22 23 26 23 23 23 23 24 29 30 28 29 27 27 28 28 27 28 27 26 28 28 28 27 27 26 26 25 24 24 24 23 23 23 23 23
15 14 14 15 16 16 22 23 23 23 22 22 22 21 20 22 24 26 27 26 26 26 25 26 26 25 25 25 26 27 26 26 26 26 25 24 24 24 24 23 23 23 23 23
14 15 16 17 18 19 20 20 21 20 21 21 21 21 20 21 24 25 25 24 24 24 24 24 24 23 23 24 25 25 24 25 25 25 25 25 24 24 24 23 23 23 23 23
15 15 14 16 18 18 19 20 21 20 20 20 20 19 19 21 22 23 23 23 24 24 23 23 24 24 23 22 22 22 22 23 24 25 25 25 24 24 24 24 24 24 24 23
13 13 14 15 16 17 19 20 20 20 20 20 19 19 19 21 21 22 21 21 21 22 21 21 22 22 21 21 20 20 20 21 23 23 24 24 25 24 25 24 25 24 25 24
13 13 13 15 17 15 16 18 19 19 20 19 18 19 18 19 18 18 18 18 18 19 19 20 20 20 19 19 19 19 18 19 20 21 23 24 25 26 25 26 24 24 25 24

GFSCGP_925_temp_024.txt.gz
Temp
30 29 30 32 32 34 35 35 35 36 37 36 37 37 37 37 36 36 34 33 33 32 32 30 29 28 28 27 26 25 24 24 24 24 24 25 25 25 25 25 25 24 24 24
29 29 32 33 33 33 33 33 35 36 37 36 36 37 38 37 36 36 35 34 33 33 33 31 30 29 28 27 26 25 24 24 23 24 25 26 26 26 26 26 25 24 24 24
31 32 32 32 32 31 32 32 34 35 36 36 36 36 36 38 37 36 36 35 35 34 33 32 31 30 29 28 27 26 24 24 23 25 24 24 25 25 26 26 25 25 24 24
31 33 32 31 31 32 31 33 34 34 34 34 37 35 37 38 37 37 37 36 35 35 34 33 32 30 30 29 27 26 25 24 24 24 25 25 26 26 27 26 26 26 24 24
31 31 31 31 31 32 32 34 34 33 34 34 35 35 36 38 37 37 37 37 36 36 35 34 33 31 30 29 28 27 25 24 25 24 25 25 25 27 27 27 27 25 25 24
32 33 33 32 33 32 33 33 33 33 33 33 34 35 36 37 37 38 38 37 36 36 35 35 33 32 31 30 29 27 26 24 24 24 23 25 25 26 27 27 27 26 26 26
31 32 32 33 32 32 32 32 31 31 32 33 36 35 35 38 39 38 39 39 37 36 35 35 34 33 31 30 29 28 26 25 24 24 24 24 24 25 26 26 26 27 27 27
31 30 32 33 32 32 31 33 33 31 33 34 35 34 36 38 39 39 39 40 39 37 36 36 35 33 32 31 29 28 27 25 25 25 24 24 24 25 25 26 27 27 28 27
32 32 34 33 33 34 32 33 35 35 35 34 37 36 38 38 38 38 39 39 40 38 37 36 36 34 32 31 30 29 28 26 26 25 25 24 24 24 26 26 26 27 27 28
32 32 33 33 34 34 34 34 33 34 32 32 35 35 36 37 36 38 38 39 40 39 37 37 36 36 34 32 31 29 28 27 26 26 25 25 25 24 25 26 25 26 27 26
30 32 33 33 32 32 33 33 33 35 35 34 34 36 38 37 37 37 38 39 40 39 39 38 38 36 35 34 32 30 29 28 27 27 26 26 26 25 25 25 25 25 26 26
29 31 31 32 34 34 34 33 33 33 32 34 35 37 38 38 38 38 39 39 40 40 40 39 39 38 36 34 33 32 31 29 28 28 26 26 26 26 26 25 25 25 25 25
27 29 30 31 33 33 33 34 34 34 35 33 33 35 37 36 36 37 37 38 38 38 37 38 39 38 37 35 34 33 32 31 30 28 28 27 26 26 26 25 25 25 25 25
21 28 30 32 32 32 32 33 34 34 34 34 35 35 36 36 36 36 37 37 37 37 37 37 37 38 37 36 34 33 33 32 31 30 29 28 27 26 26 26 25 25 25 24
24 26 26 30 28 28 32 32 33 33 33 33 35 35 35 36 36 36 36 36 36 37 37 36 36 36 35 35 34 32 32 32 32 31 30 28 27 26 26 26 25 25 25 24
23 24 24 26 27 27 27 29 31 32 34 33 34 34 36 37 35 35 35 35 35 36 37 37 37 36 35 34 33 33 32 32 31 31 30 29 27 26 26 26 25 25 25 25
20 23 23 25 27 27 26 28 29 30 31 31 31 32 34 34 34 34 35 35 35 36 36 37 38 37 37 36 34 33 32 31 31 29 29 28 27 26 26 26 25 25 25 25
19 20 23 25 25 23 29 32 30 30 30 31 31 32 33 33 34 34 35 35 36 37 37 37 38 39 38 37 37 35 32 30 30 29 28 28 27 26 26 25 25 25 25 25
19 20 22 22 24 27 28 28 28 29 30 32 32 32 33 33 34 34 35 36 36 36 37 37 37 37 36 36 36 34 32 31 29 29 28 27 27 26 26 25 25 25 25 25
20 19 20 22 22 23 27 29 28 28 27 31 29 30 31 31 32 34 36 37 37 37 37 36 36 35 34 33 34 33 33 31 29 29 28 27 27 27 26 26 25 25 25 25
19 18 18 20 21 24 27 26 26 25 26 27 28 28 28 28 30 30 30 31 32 34 34 34 33 33 33 32 32 33 32 32 30 29 29 28 27 26 26 26 25 25 25 26
19 18 19 20 20 20 26 25 24 24 25 25 26 26 26 26 26 27 27 29 30 32 33 32 31 32 31 30 30 31 31 31 30 29 29 28 27 27 27 26 25 25 25 25
17 19 20 21 21 22 24 24 24 24 24 24 24 25 25 25 25 26 28 29 30 31 31 31 32 30 29 28 30 30 29 29 29 28 28 28 27 26 27 26 25 26 25 26
17 19 18 19 20 21 21 22 23 23 23 24 25 25 25 24 24 25 27 29 28 28 28 28 28 28 27 27 28 27 26 27 27 27 27 27 27 26 26 27 27 27 28 26
18 17 17 17 19 20 21 21 21 22 23 23 24 24 24 23 22 26 27 26 26 26 26 26 27 26 25 24 24 24 24 25 27 27 27 27 27 27 27 26 28 28 28 29
16 16 16 17 19 19 19 21 19 20 20 21 23 23 23 19 21 21 21 20 22 22 23 22 22 22 23 23 23 22 22 23 24 26 27 29 29 30 29 29 28 27 27 26

GFSCGP_925_temp_027.txt.gz
Temp
32 31 31 33 34 35 37 37 37 39 40 39 38 38 39 39 39 39 38 37 36 35 35 33 32 31 31 30 29 28 27 27 26 26 26 27 27 27 27 27 27 26 25 25
32 31 33 34 35 35 36 36 38 39 40 39 38 38 40 40 39 39 38 37 37 36 35 34 32 32 31 30 29 28 27 26 25 26 26 27 27 28 27 27 27 26 25 25
33 34 34 34 35 35 35 36 37 38 39 39 38 38 38 40 40 39 39 38 38 37 36 34 33 32 31 30 29 28 26 26 25 26 26 26 27 27 27 27 27 26 25 26
33 36 34 34 34 35 35 37 37 37 37 37 38 36 37 39 39 39 39 39 38 38 37 35 34 33 32 31 29 28 26 25 25 25 27 27 27 28 28 28 28 27 26 26
33 34 34 34 34 36 35 37 36 36 36 37 37 37 39 39 39 39 40 39 39 39 38 36 35 33 33 32 30 28 26 25 26 25 26 27 27 28 28 29 28 27 26 26
34 36 36 35 36 36 36 36 36 36 36 35 36 37 38 40 40 40 40 40 40 39 38 37 35 34 33 32 31 29 27 25 25 25 25 26 27 28 29 28 29 28 28 26
33 35 36 36 35 36 35 34 33 33 34 34 37 37 37 40 41 41 41 41 41 40 39 37 36 35 33 33 31 30 28 26 25 25 25 25 26 26 28 28 28 29 29 28
33 32 35 36 35 35 34 35 34 32 34 35 37 36 38 40 41 42 42 42 41 40 40 39 37 36 34 33 32 31 29 27 26 25 25 25 25 27 27 27 29 28 29 29
34 34 36 36 36 36 34 35 37 37 38 38 38 38 40 41 41 41 41 41 41 41 40 39 38 36 35 33 32 31 30 27 26 26 26 25 25 26 27 27 27 28 28 30
35 34 36 36 36 36 36 36 35 36 34 35 38 38 38 39 39 40 40 40 41 42 40 40 39 37 36 34 33 31 30 28 27 27 26 26 25 25 26 27 27 27 28 28
34 35 35 37 35 34 35 35 36 37 37 36 36 38 41 40 40 39 40 41 41 42 41 40 39 38 36 35 34 32 31 30 28 27 27 27 26 26 25 26 27 27 27 28
34 34 33 35 36 37 37 35 36 35 34 37 38 39 41 41 41 40 40 41 41 42 41 40 40 39 38 36 35 34 32 31 29 28 28 27 27 27 26 26 26 27 27 27
32 31 32 34 36 36 35 36 37 37 37 36 36 38 40 39 39 40 40 41 41 41 41 41 41 40 40 38 37 35 34 33 31 30 29 28 27 27 27 27 26 26 26 26
24 30 31 34 35 35 34 36 36 37 36 36 37 38 38 38 38 38 39 40 40 40 40 41 41 41 40 39 37 36 36 34 33 32 30 30 28 28 28 28 27 26 26 26
27 27 30 33 35 37 35 35 36 35 36 36 38 37 38 38 38 38 38 38 38 38 38 39 39 39 39 39 37 36 36 36 35 33 32 31 29 28 28 28 27 27 27 26
27 26 28 31 33 32 32 36 36 36 36 36 37 38 40 39 39 38 38 38 37 37 38 39 39 38 38 38 37 36 35 35 35 34 33 32 30 29 28 28 27 27 26 26
22 26 27 28 31 31 29 33 35 36 36 37 35 37 39 38 37 37 36 37 37 37 38 38 38 39 38 37 37 36 35 34 34 33 33 32 31 29 28 28 27 27 26 26
21 23 25 27 29 27 31 34 34 34 35 36 36 36 37 36 36 36 37 36 36 37 37 38 39 39 39 39 40 37 36 34 33 33 32 32 31 30 28 27 27 27 26 26
22 22 24 25 28 30 31 33 33 32 32 34 34 34 35 35 35 35 36 36 36 37 38 38 39 39 39 39 39 38 37 35 32 32 32 31 30 30 28 27 27 27 26 26
23 22 22 25 26 28 31 32 32 32 30 34 34 34 34 35 33 35 34 34 35 37 37 38 38 38 38 38 37 38 37 36 33 32 31 30 30 29 28 27 27 27 27 26
21 21 21 22 24 27 30 30 31 28 27 30 33 32 32 32 32 31 31 31 32 32 33 34 35 35 35 35 36 36 36 36 34 32 31 30 29 29 28 27 27 27 26 27
21 21 21 22 22 23 29 29 27 25 26 26 27 27 27 28 28 29 30 30 31 32 33 34 34 34 33 34 34 34 34 34 34 33 31 30 29 28 28 27 27 27 26 26
20 21 22 23 24 25 26 26 27 26 25 25 25 27 27 28 28 28 28 29 30 32 32 33 33 34 33 32 31 32 32 32 32 31 30 30 29 28 28 28 27 27 26 27
20 21 21 21 23 23 24 25 25 25 25 25 25 26 27 27 27 27 28 30 31 31 30 31 31 32 30 29 30 31 29 30 30 30 29 29 29 28 28 28 28 28 29 29
20 20 20 20 21 22 23 23 23 24 24 24 25 25 25 26 26 25 26 28 29 29 28 29 29 29 27 26 26 26 26 27 28 29 29 28 29 28 28 28 29 30 29 30
19 19 19 19 21 21 21 23 23 23 23 23 23 23 24 26 26 24 24 25 25 24 23 23 25 26 26 25 24 24 24 25 27 28 29 30 31 30 29 30 29 28 28 28

GFSCGP_925_temp_030.txt.gz
Temp
33 32 32 33 34 35 36 36 36 38 39 39 38 38 38 35 27 32 36 36 35 35 35 33 33 32 31 30 28 28 28 27 25 25 25 26 26 27 27 27 28 26 25 25
32 31 33 34 35 34 35 36 37 38 40 40 39 39 39 35 28 29 35 31 36 35 35 34 33 33 32 30 28 27 27 27 26 26 25 26 27 27 27 27 27 26 26 25
32 33 34 34 34 34 35 35 36 38 39 40 39 38 39 38 39 37 38 35 37 36 36 34 33 33 32 30 29 27 27 27 26 26 26 26 27 27 27 27 27 27 26 25
33 35 34 34 34 35 34 36 37 37 38 37 40 36 38 39 39 39 39 38 38 37 36 35 34 33 32 31 29 27 27 26 25 26 26 26 27 27 28 27 27 27 26 25
33 33 34 33 34 35 35 37 36 37 37 37 38 37 38 39 39 39 39 39 35 38 37 35 34 33 33 31 30 28 27 26 25 25 26 26 26 27 28 28 28 27 26 26
34 36 35 36 36 36 37 37 37 37 37 35 37 37 38 39 39 40 40 40 39 38 38 36 35 33 33 32 30 29 26 26 26 25 26 26 26 27 28 28 28 27 26 26
33 34 36 37 36 36 36 35 34 33 34 33 37 37 38 40 40 41 41 40 40 39 39 37 34 34 33 32 31 29 26 25 25 25 25 25 26 27 27 28 28 28 27 26
32 32 35 37 36 35 35 35 34 31 33 34 36 36 37 40 41 41 42 42 41 41 40 38 35 34 33 33 31 30 27 26 25 25 25 25 25 26 27 27 28 28 28 28
33 33 36 37 37 37 35 34 37 36 36 36 37 37 39 40 40 41 42 42 41 41 41 38 37 35 33 33 31 30 28 26 25 25 25 25 25 26 26 27 28 28 29 29
34 33 36 36 37 37 37 37 34 36 33 34 37 38 37 38 39 40 41 42 42 41 41 39 38 36 34 33 32 31 29 27 26 26 25 25 25 25 26 27 27 28 28 29
33 34 35 37 35 35 36 36 35 36 36 35 36 38 42 39 39 40 41 41 42 41 40 40 39 37 35 34 33 31 30 28 27 26 26 26 25 25 25 26 27 27 28 28
33 33 33 35 38 37 37 36 36 34 34 36 37 38 41 42 41 41 41 41 42 41 40 40 39 38 37 35 34 32 31 30 28 27 26 26 26 26 25 25 26 27 27 28
27 31 32 32 36 37 36 36 36 36 36 35 35 37 41 40 41 41 41 41 40 40 41 40 40 39 38 36 35 34 32 31 30 28 27 27 26 26 26 25 26 27 26 27
24 27 31 33 34 37 35 36 36 36 35 35 37 37 38 39 39 40 40 40 40 39 39 40 40 38 38 37 35 34 33 33 31 30 28 28 27 27 26 26 26 26 27 26
27 27 30 33 35 37 36 35 36 36 37 35 37 38 37 38 38 39 39 39 40 40 40 39 40 37 36 36 35 35 35 34 33 32 30 29 28 28 27 27 27 26 26 26
24 26 29 30 33 34 34 36 36 36 37 37 38 39 39 38 38 38 37 37 37 37 39 39 39 38 38 37 36 35 35 35 34 33 32 30 29 28 28 27 27 27 26 26
22 24 26 27 30 32 33 35 36 37 37 37 37 38 39 37 37 37 37 37 37 37 38 38 38 38 37 38 37 35 35 35 35 33 32 32 30 29 28 28 27 27 27 26
21 22 24 26 28 27 33 36 36 37 37 38 38 39 39 38 38 37 37 37 37 37 37 37 38 38 38 38 38 37 35 34 34 34 33 32 31 29 29 28 28 27 27 27
23 22 23 25 27 30 32 34 34 34 36 38 38 38 37 37 37 36 36 37 36 37 36 37 38 38 38 38 38 36 35 34 33 33 32 32 31 30 29 28 27 27 27 27
23 23 22 24 26 27 31 34 35 36 32 32 35 35 36 36 33 32 31 32 32 33 33 33 34 35 38 38 39 38 35 34 32 32 32 32 31 30 30 29 28 27 27 27
21 21 22 23 24 28 26 31 34 31 25 27 30 32 33 32 30 30 31 30 31 32 33 33 33 33 34 33 34 34 36 35 34 32 32 31 31 30 30 29 28 27 27 27
22 20 21 23 23 23 26 28 26 25 25 26 26 27 28 28 29 29 29 29 29 31 32 33 33 33 34 33 33 33 33 34 34 35 32 31 31 29 30 29 28 27 27 27
20 22 22 23 24 25 26 26 26 26 25 25 25 26 27 28 28 28 28 28 29 31 32 32 32 33 33 33 31 31 31 32 33 33 32 31 30 29 29 28 28 27 27 27
17 21 21 21 23 23 24 26 26 25 25 24 25 25 26 26 26 27 27 26 27 29 29 29 30 31 29 29 29 30 30 31 31 31 31 30 29 28 28 28 27 27 27 27
19 19 19 20 22 23 23 24 24 24 24 24 25 25 25 24 25 25 26 25 25 26 25 26 28 29 28 26 26 26 26 27 29 30 29 29 29 29 28 28 28 28 28 28
19 19 19 19 21 20 21 22 24 24 23 24 24 24 24 24 24 24 25 24 23 24 24 25 26 27 25 24 23 25 25 26 28 29 29 29 29 29 28 28 28 28 28 27

GFSCGP_925_temp_033.txt.gz
Temp
28 27 27 29 30 31 31 31 32 34 36 35 34 34 33 28 26 27 24 24 30 31 31 31 31 30 29 28 27 27 26 26 26 25 25 25 25 26 26 27 26 27 26 26
28 27 30 31 31 31 32 31 32 34 36 35 36 35 32 27 26 25 25 26 28 31 31 31 31 31 29 28 28 28 27 26 25 25 25 25 25 26 26 27 26 27 26 25
28 29 31 32 31 31 31 31 32 32 35 36 35 35 29 30 29 28 27 27 28 32 31 30 31 31 29 27 27 28 28 26 26 25 25 25 25 26 26 27 27 26 26 25
29 31 31 30 31 31 30 32 33 34 33 31 36 32 32 31 29 27 27 26 29 30 32 31 31 31 29 27 27 27 27 27 26 25 25 25 25 25 26 27 27 26 26 26
29 30 30 30 31 32 31 33 33 33 32 30 33 31 34 33 30 28 27 29 27 27 31 31 31 31 30 28 26 26 27 26 25 25 25 25 25 26 26 27 27 27 26 26
30 33 32 31 33 33 34 32 31 32 31 30 31 31 30 34 34 32 31 30 29 32 33 30 31 31 31 28 27 26 26 26 26 26 25 26 25 26 26 27 27 27 27 26
30 31 32 33 31 33 32 30 28 28 29 29 30 30 31 34 35 36 34 31 30 28 31 30 31 31 31 28 27 26 25 25 25 25 26 26 26 26 26 27 27 27 26 26
28 28 31 33 32 31 31 31 26 26 28 29 31 31 32 34 35 36 37 33 30 28 30 32 31 31 31 30 28 26 25 25 24 24 25 26 25 26 26 27 27 27 27 27
27 28 32 33 34 33 31 30 31 29 30 28 30 31 33 35 35 36 36 37 34 33 34 33 32 31 31 30 29 27 25 25 24 24 24 25 25 25 26 27 27 27 27 27
29 27 32 33 33 34 32 32 30 30 27 28 30 31 32 33 34 35 34 36 36 34 33 33 32 32 31 31 29 28 25 25 24 24 24 24 25 25 25 26 27 26 28 28
21 27 28 32 31 31 32 31 32 29 27 26 27 30 35 34 34 34 35 34 38 36 35 33 33 32 31 31 30 28 27 25 24 24 24 24 24 24 24 25 26 27 27 28
20 21 27 28 33 34 33 32 31 30 28 29 29 31 33 34 36 35 36 34 35 37 35 34 33 33 31 31 30 29 28 26 25 24 24 24 24 24 24 24 25 27 27 27
17 19 25 27 29 32 33 33 32 30 28 28 28 28 35 33 36 35 35 34 33 34 35 35 34 33 32 32 31 30 29 27 26 25 25 24 24 24 23 24 25 26 27 27
17 19 20 25 28 30 32 33 33 31 30 31 29 32 34 33 33 33 33 33 33 32 35 35 35 34 33 32 32 31 30 29 27 26 25 25 24 24 24 24 24 24 25 26
15 18 22 25 29 31 32 33 33 32 31 31 31 32 34 36 32 32 32 33 33 32 34 35 35 34 33 32 32 31 30 30 29 27 26 26 25 25 25 24 24 24 25 25
16 17 21 24 29 30 31 34 34 34 33 32 32 32 32 32 30 31 31 31 31 31 31 32 34 34 34 33 32 31 31 31 30 29 27 27 26 26 25 25 25 24 24 24
15 18 18 23 27 29 29 31 34 34 34 33 31 32 33 32 32 31 30 31 31 31 31 31 31 30 30 33 33 32 32 31 31 30 29 28 27 26 26 25 25 25 25 24
15 17 18 20 24 25 28 31 33 34 34 34 34 33 31 31 29 28 29 30 31 31 30 30 30 31 35 34 32 33 32 31 31 30 29 29 27 26 26 26 25 25 25 25
17 18 17 20 23 27 29 28 28 32 25 25 27 33 32 30 28 27 28 28 27 27 27 27 29 30 33 35 36 33 32 31 30 31 30 29 28 27 27 26 26 26 26 25
19 19 19 20 21 25 21 24 27 29 22 25 26 28 31 29 25 24 26 27 27 26 27 28 31 32 32 32 34 33 32 32 31 31 30 30 30 29 27 27 26 26 26 26
18 19 19 20 21 20 23 24 24 25 21 24 24 25 25 25 24 24 25 25 25 26 27 31 31 30 32 33 33 31 31 30 33 33 33 32 32 30 29 28 27 26 26 26
18 18 18 20 20 18 21 23 21 21 22 22 22 22 23 24 24 24 23 24 24 25 27 28 27 28 31 33 33 30 30 32 33 32 31 32 32 31 30 29 27 26 26 26
14 14 14 18 17 19 18 19 22 22 22 21 20 22 22 22 22 23 22 22 23 24 24 25 25 26 27 27 28 28 28 30 31 32 32 31 31 31 30 29 28 26 26 26
17 17 15 17 19 19 20 22 22 22 22 21 21 21 21 20 21 21 21 21 22 22 23 23 24 24 25 26 26 26 26 28 29 31 30 30 30 29 29 29 28 27 26 25
15 15 16 16 17 17 18 17 18 20 21 22 22 21 21 20 19 19 19 20 20 20 21 22 22 23 23 24 24 25 25 26 27 29 29 29 29 28 28 28 27 27 27 27
15 14 13 12 14 13 14 15 16 17 19 19 20 21 21 20 19 19 18 19 19 19 21 20 21 22 23 24 24 24 24 25 26 27 28 28 28 28 28 28 24 26 25 25

GFSCGP_925_temp_036.txt.gz
Temp
24 24 23 25 25 27 28 28 28 30 33 33 32 31 28 28 28 27 25 26 26 26 27 27 26 26 26 26 26 25 25 25 25 26 26 26 26 26 26 26 25 25 26 26
23 24 26 27 27 27 28 28 28 31 32 31 31 30 29 29 28 28 27 27 27 27 27 28 27 27 27 26 25 25 25 25 26 26 26 26 26 26 26 26 26 26 26 26
25 27 28 28 27 28 28 27 28 29 31 32 33 29 31 30 29 28 28 28 28 29 29 28 28 27 27 25 25 24 25 25 25 26 26 25 26 26 26 25 26 26 25 26
26 28 28 27 28 29 26 29 30 30 29 28 32 29 27 28 27 27 28 28 27 28 30 29 28 28 28 26 25 25 25 25 25 25 25 25 24 24 25 25 26 26 25 25
27 27 27 27 28 29 29 30 30 30 28 28 30 28 26 27 26 26 27 27 28 28 30 29 29 29 28 26 25 24 24 25 25 25 25 25 24 24 25 25 26 26 25 25
27 29 29 28 30 30 30 29 29 29 27 26 29 28 27 27 28 28 29 28 29 28 30 31 30 30 28 27 26 25 24 24 24 25 25 25 24 24 25 25 25 26 25 25
27 27 29 30 28 29 29 26 25 25 26 26 30 26 29 30 30 30 29 29 29 29 30 31 30 30 29 27 26 25 24 23 24 24 24 25 25 25 25 25 26 26 25 25
24 25 28 30 28 28 28 27 24 24 24 27 27 26 28 30 32 33 30 30 30 30 29 30 30 30 29 27 26 26 25 24 24 24 24 24 25 25 25 25 26 26 26 26
21 25 29 30 31 30 27 27 26 24 25 24 28 29 31 31 31 31 30 30 30 30 29 31 30 30 30 27 26 26 25 25 24 24 24 23 24 25 25 26 26 26 26 26
14 19 28 29 31 30 30 28 27 22 25 25 26 27 30 31 31 29 31 30 30 30 30 31 30 30 30 28 27 26 25 25 24 24 24 24 24 25 25 25 26 26 26 26
14 15 23 28 29 29 28 29 28 27 23 25 25 29 29 29 29 31 31 32 31 30 31 30 31 31 30 29 28 26 25 25 24 24 24 24 24 24 24 25 25 26 26 26
14 13 15 24 28 29 30 28 27 28 25 23 24 29 32 32 32 32 31 31 31 31 31 31 31 31 30 30 28 27 25 25 24 24 24 23 23 23 23 24 25 25 26 26
11 13 12 22 24 27 27 29 29 24 24 25 28 29 31 31 30 31 33 32 32 32 32 32 32 31 30 30 29 27 26 25 25 24 24 23 23 23 23 24 23 24 25 26
11 10 12 15 21 22 27 28 29 30 27 27 28 30 30 30 31 29 32 30 31 34 33 32 31 31 30 30 29 28 27 25 25 24 24 23 23 23 23 24 23 23 24 25
10 10 13 16 19 21 22 29 30 28 29 29 29 30 29 29 28 29 29 29 31 33 33 33 31 31 30 30 30 28 28 26 25 24 24 23 24 23 23 23 23 24 23 24
11 10 13 16 22 24 26 29 29 31 30 28 27 29 29 31 27 28 28 29 30 32 33 33 32 31 30 30 30 29 28 27 26 25 24 24 24 23 23 23 23 23 23 23
11 11 11 15 20 27 27 25 28 31 30 31 27 28 30 28 25 24 28 29 27 30 33 32 32 32 31 31 30 29 29 28 26 25 25 25 24 24 23 24 23 23 23 23
12 11 11 14 19 23 23 23 24 24 23 23 23 25 26 25 25 24 25 26 27 28 27 27 28 29 31 31 31 30 29 29 28 27 26 25 25 24 24 24 24 23 23 23
14 13 12 16 19 24 21 20 22 22 21 21 22 27 27 26 26 24 24 24 24 24 24 24 26 28 31 32 31 31 30 29 28 28 28 26 26 25 24 24 24 24 24 24
13 15 13 15 18 19 17 20 24 23 19 21 21 23 25 27 22 21 22 23 23 23 24 24 28 28 30 30 31 31 30 29 29 28 28 28 27 26 25 25 25 24 24 24
12 15 17 18 18 17 18 19 24 19 19 21 20 21 20 21 21 21 22 21 22 23 23 24 25 24 28 30 30 29 29 29 30 29 29 28 28 27 26 26 25 25 25 25
12 12 13 16 15 15 16 17 16 18 20 20 20 19 19 20 20 20 21 21 21 21 22 23 23 23 24 27 29 26 26 28 30 29 29 28 28 27 27 26 26 25 25 25
11 11 11 12 13 14 14 13 16 17 18 19 19 18 19 19 19 19 19 20 20 20 21 21 22 22 23 24 25 24 24 27 29 29 29 30 29 28 28 27 26 25 25 25
13 15 12 14 13 14 13 13 14 16 16 19 19 19 18 18 18 18 18 18 19 19 19 20 21 21 21 23 24 24 25 26 26 27 29 29 29 28 28 27 26 25 24 24
12 12 11 12 12 13 14 14 13 14 16 18 18 18 18 17 17 17 16 17 18 18 18 19 19 20 21 23 24 24 24 24 25 26 27 28 28 27 26 25 25 25 26 26
11 9 9 9 10 8 10 13 13 13 14 16 16 17 16 16 16 16 16 16 17 17 18 18 19 20 21 23 23 24 24 24 24 24 25 26 26 26 26 24 21 22 24 25

GFSCGP_925_temp_039.txt.gz
Temp
21 21 22 23 24 25 26 27 27 28 30 29 29 30 25 25 25 24 24 24 25 25 25 25 25 25 25 24 24 24 24 24 24 24 24 24 24 25 25 25 25 25 24 24
21 21 23 24 24 24 25 25 26 28 30 29 29 30 27 25 25 25 24 24 25 25 25 25 25 25 25 24 25 24 25 24 24 24 24 24 25 25 26 25 25 25 24 24
22 23 25 25 24 24 24 25 26 27 28 29 29 28 29 26 26 26 25 25 25 25 25 25 25 25 25 25 24 24 25 24 25 24 24 24 25 26 25 25 25 25 25 25
23 25 25 24 24 25 23 26 27 28 28 25 29 26 26 26 26 26 25 25 26 26 26 26 26 26 26 25 24 25 25 24 24 24 24 24 25 25 26 26 25 25 25 25
24 25 25 25 25 26 26 27 27 27 26 26 28 27 25 27 25 26 27 26 27 26 27 26 26 26 26 26 24 24 25 24 24 24 24 24 24 25 25 25 25 25 26 25
23 26 26 27 27 27 28 27 26 26 24 25 27 26 25 27 27 27 27 27 28 28 28 28 27 27 27 26 25 24 24 24 24 24 24 24 24 24 25 25 25 25 25 25
21 24 25 27 26 26 27 24 21 22 22 25 27 25 28 27 29 28 28 28 28 28 28 29 27 27 27 27 25 24 23 23 23 24 24 24 25 25 26 25 25 25 25 25
13 21 25 27 26 26 25 25 21 21 23 26 25 24 26 28 30 30 29 29 29 27 28 29 28 28 27 27 25 24 23 23 23 23 23 24 25 25 25 26 25 25 25 25
12 15 18 27 28 27 25 25 25 22 22 23 27 25 28 28 29 29 30 30 30 29 28 28 29 29 28 27 25 25 23 23 23 23 23 23 24 24 24 25 25 25 25 25
12 11 16 22 28 28 26 25 24 21 23 23 24 26 27 27 27 27 29 29 30 30 29 29 30 29 29 27 26 25 24 24 23 23 23 23 23 24 25 25 25 25 25 25
11 13 15 18 24 26 26 26 26 25 22 25 23 28 26 28 28 28 29 31 30 30 29 29 29 30 29 29 26 25 25 24 23 23 23 23 23 24 24 24 25 25 25 25
11 11 13 16 19 19 28 25 23 27 23 21 22 27 30 28 27 30 31 30 29 29 30 30 29 30 29 29 27 26 25 25 24 23 23 23 23 24 23 24 25 25 25 25
10 12 11 18 22 24 26 27 25 25 21 23 26 27 27 28 30 27 27 29 30 30 30 30 30 29 29 29 27 26 25 25 25 24 24 23 23 23 23 23 24 24 25 25
11 10 10 13 15 15 17 19 26 26 24 25 27 29 30 30 28 28 27 28 30 30 30 30 30 29 30 29 29 27 25 25 25 24 24 23 23 23 23 24 23 23 24 25
9 9 9 11 12 14 15 17 19 23 26 27 27 26 29 29 28 26 25 26 28 31 30 30 30 30 29 29 29 27 26 25 25 24 24 23 23 23 23 23 23 24 24 24
9 10 11 12 16 15 17 21 22 23 27 27 27 27 28 28 25 23 22 25 29 30 30 30 30 30 30 29 29 27 26 25 25 24 24 23 23 23 23 23 23 23 23 23
9 9 10 11 17 20 20 20 22 24 19 23 26 26 26 25 23 22 21 23 29 30 30 30 31 31 30 30 29 28 27 26 25 24 24 24 23 23 23 23 22 22 23 23
11 8 9 10 15 21 18 18 20 21 20 20 19 21 23 22 22 22 21 21 22 29 31 31 31 31 31 30 29 29 27 26 25 24 24 24 23 22 22 22 22 22 22 22
13 8 10 11 17 20 18 17 16 17 18 20 19 20 24 24 25 22 21 21 21 22 22 27 31 31 31 30 29 28 27 26 25 25 24 24 23 23 23 22 22 22 22 22
10 9 10 11 17 18 16 16 17 20 17 20 19 19 20 23 22 21 20 20 20 21 21 22 27 29 29 29 29 28 27 27 26 25 25 24 24 24 23 23 23 23 23 23
10 11 12 13 16 16 15 15 19 16 17 18 20 19 18 18 20 20 19 20 20 21 21 22 23 23 25 29 29 28 28 27 28 27 26 25 25 25 24 24 24 23 23 23
11 11 13 14 15 15 15 15 14 14 16 17 18 19 19 19 19 18 18 19 19 19 20 21 21 21 22 25 27 25 25 26 28 28 28 27 26 25 25 25 25 24 24 23
11 9 11 11 12 13 13 13 13 14 14 15 17 18 19 19 18 16 17 17 18 18 19 20 20 21 21 23 24 23 23 26 28 28 28 28 27 27 26 25 25 24 24 24
11 11 9 11 12 11 13 12 12 12 13 14 16 17 18 18 18 17 15 17 17 17 18 18 20 20 20 22 23 24 24 25 26 25 26 26 26 26 26 26 25 24 24 24
10 10 9 11 11 12 14 12 11 11 12 13 14 16 17 17 17 16 16 16 16 16 17 17 18 19 19 21 22 23 24 25 25 25 25 25 25 24 24 24 23 24 24 24
8 8 9 9 10 10 10 11 11 10 10 11 12 15 15 16 16 16 15 15 15 15 16 16 17 18 20 21 22 23 23 24 24 24 25 25 25 24 22 20 19 21 22 23

GFSCGP_925_temp_042.txt.gz
Temp
20 19 20 22 22 23 24 25 25 27 29 28 27 27 24 24 23 23 23 23 23 23 24 24 23 23 22 22 22 23 23 24 23 23 22 23 23 24 24 25 25 25 24 24
19 19 21 23 22 22 23 24 24 26 29 27 27 27 24 24 24 23 23 23 23 24 24 24 24 23 23 22 23 22 23 24 24 24 23 23 24 24 25 25 25 25 24 24
19 21 23 23 22 22 22 22 24 26 28 29 27 26 24 24 24 24 24 24 24 24 24 24 24 24 24 22 23 23 24 24 24 24 24 23 23 23 24 24 25 25 24 24
20 23 23 22 22 22 19 23 25 25 26 25 27 25 24 24 24 24 24 24 24 24 25 25 24 24 24 24 23 24 24 24 25 25 24 23 23 23 24 25 25 25 25 25
21 22 22 22 23 23 23 24 24 25 24 25 27 25 25 24 23 24 24 24 24 25 25 25 25 24 24 24 23 23 24 24 24 25 25 24 23 24 24 25 25 25 25 25
20 22 23 24 25 25 25 25 23 24 22 23 25 26 24 23 25 25 25 25 25 25 25 25 25 25 25 25 24 23 23 24 24 24 24 24 24 24 24 24 25 25 25 25
16 19 23 24 23 24 24 23 19 20 20 23 25 26 25 25 27 27 26 26 26 25 26 26 25 25 25 25 24 23 23 23 23 23 24 24 24 24 24 25 25 25 25 25
11 18 22 23 22 23 23 22 19 19 20 24 23 23 25 29 28 28 28 28 27 27 26 26 26 26 25 25 25 23 23 23 23 23 23 24 24 24 24 25 25 25 25 25
10 13 15 19 21 24 23 23 22 21 20 20 26 24 27 27 29 27 28 28 28 27 27 27 27 27 26 26 25 24 23 23 23 23 23 23 23 23 24 25 25 25 25 25
12 11 14 17 20 23 24 24 22 19 22 21 22 23 27 25 25 27 27 28 28 28 27 27 27 27 27 26 25 24 24 23 23 23 23 23 23 24 24 25 25 25 25 25
10 11 13 15 18 22 23 24 24 23 20 23 21 23 25 25 27 26 28 27 28 28 28 27 28 28 27 27 26 24 24 23 23 22 22 22 23 23 24 24 25 25 25 25
11 10 11 13 16 17 16 22 22 24 22 19 20 25 27 26 26 27 28 27 28 28 29 28 29 28 28 27 26 25 24 23 23 23 23 23 23 23 23 23 24 25 25 25
10 10 12 13 17 17 18 22 23 21 24 24 24 23 27 26 26 25 27 26 27 28 28 29 29 28 29 27 26 25 24 23 23 23 22 22 22 22 22 23 24 24 25 25
11 10 10 11 15 13 13 15 22 21 24 24 25 25 26 27 27 27 26 25 25 25 26 27 28 28 29 28 26 25 24 24 24 23 23 22 22 22 22 23 23 24 25 25
9 10 10 11 11 11 12 14 16 17 20 24 25 25 26 26 25 24 24 25 26 25 26 26 28 27 27 28 27 25 25 24 24 23 23 23 23 22 23 23 23 24 24 25
9 9 10 9 12 12 13 16 17 17 20 23 25 24 23 25 24 22 21 21 21 24 27 27 28 28 27 28 27 25 25 24 24 24 23 23 23 22 23 23 23 23 23 24
8 9 9 9 14 15 15 17 18 19 18 19 23 22 19 22 20 19 20 20 20 21 25 28 28 28 28 28 28 26 25 24 24 24 23 23 22 22 22 22 22 22 22 23
8 8 9 9 12 17 16 17 20 19 18 18 18 18 20 21 20 20 20 20 20 20 24 28 29 29 29 29 28 27 25 24 24 23 23 23 22 22 22 21 22 22 22 22
10 8 9 9 12 18 18 16 15 15 18 17 18 18 19 21 22 21 20 20 21 21 20 25 29 29 29 29 28 26 25 24 24 23 23 23 22 22 22 21 21 21 21 21
9 8 9 10 12 17 14 15 15 16 16 17 16 19 18 20 21 21 19 20 20 21 20 24 27 29 28 28 27 25 25 24 23 24 23 23 22 22 22 22 22 22 22 21
9 9 9 10 12 15 13 14 15 17 15 15 16 18 18 18 17 17 19 19 20 21 21 21 25 25 26 28 27 25 25 25 24 24 24 24 23 23 23 22 22 22 22 22
10 11 12 12 15 16 13 14 14 13 15 14 15 16 18 18 18 17 18 19 19 19 20 21 20 20 23 26 26 25 25 25 26 25 24 24 23 23 23 23 23 22 22 22
10 9 10 10 11 10 12 11 12 13 13 13 13 15 17 17 17 17 16 17 18 18 18 19 20 20 20 24 25 24 23 25 27 26 25 25 24 24 24 23 23 22 22 22
9 9 9 10 10 10 12 12 12 12 12 13 13 14 16 17 17 17 16 16 16 17 17 17 18 19 19 21 22 23 23 24 26 26 26 26 25 24 24 24 24 23 23 22
8 9 8 9 11 11 13 11 11 12 12 12 13 13 14 16 16 16 15 14 15 16 16 16 17 18 18 20 21 22 23 24 24 24 25 25 24 24 24 24 23 23 23 23
9 9 9 10 10 9 9 10 11 11 11 11 11 12 13 15 15 15 15 14 14 14 15 16 17 17 18 19 20 21 22 23 23 23 23 23 23 22 22 22 20 21 22 23

GFSCGP_925_temp_045.txt.gz
Temp
23 24 24 25 25 27 27 27 29 29 31 31 32 32 29 27 26 26 25 25 25 25 25 24 24 24 23 22 22 21 21 21 21 21 22 22 23 22 23 24 25 25 24 24
22 23 25 25 25 25 26 26 27 29 29 31 31 31 32 27 27 26 26 26 26 26 26 25 24 24 24 23 22 21 21 21 22 21 22 22 23 23 23 24 25 25 25 24
24 25 25 24 24 24 25 26 27 27 29 30 31 31 31 28 28 27 27 27 27 27 26 26 25 25 24 23 22 22 21 21 22 22 21 22 22 23 23 23 24 25 25 24
23 25 24 24 25 25 25 26 26 27 27 29 31 30 31 31 28 27 27 27 27 27 27 27 26 25 25 24 23 22 22 21 22 22 22 22 24 24 24 24 24 25 25 25
24 24 24 24 25 25 25 26 26 27 27 27 29 29 32 30 29 28 28 28 28 27 27 27 26 25 25 24 23 23 22 22 22 22 22 23 23 24 23 23 24 25 25 25
22 22 24 26 26 25 26 26 26 27 27 26 27 28 30 31 30 30 30 29 28 28 28 27 26 26 25 25 24 23 22 22 22 22 22 23 23 23 23 23 24 24 24 24
20 22 24 26 25 26 26 25 25 25 25 26 30 28 29 32 31 32 31 29 29 28 28 28 27 26 25 25 24 23 22 22 22 22 22 22 23 23 23 23 24 24 24 24
18 23 21 19 25 26 25 26 25 24 26 28 29 28 29 32 32 32 33 32 30 29 29 28 28 27 26 25 25 24 23 23 22 22 22 23 23 23 24 23 24 24 24 24
16 17 19 20 20 21 26 25 28 27 25 27 30 29 30 31 32 33 32 32 30 29 29 29 28 27 26 26 25 24 23 23 22 23 22 22 23 23 23 24 24 23 23 24
14 16 17 18 19 23 23 27 25 26 24 25 28 29 30 31 31 32 33 32 31 31 30 30 29 28 27 26 26 25 24 23 23 23 22 22 22 23 23 23 23 24 24 25
14 15 17 17 19 23 25 24 26 27 27 27 27 29 31 31 32 32 32 33 33 32 31 30 30 29 28 27 26 25 25 24 23 23 23 23 22 23 22 22 23 23 25 26
14 12 12 16 18 19 19 18 25 26 25 27 27 29 31 32 33 34 34 33 33 32 32 31 31 29 29 28 27 26 26 25 24 24 23 23 23 23 22 22 22 22 24 26
13 12 14 17 20 20 19 20 20 26 27 26 26 27 32 31 31 31 33 35 32 31 32 31 31 30 30 29 28 27 26 26 25 24 23 23 23 23 23 23 23 22 24 26
13 12 13 15 17 17 15 18 18 22 26 26 28 28 30 31 30 32 31 30 31 30 30 31 30 30 29 29 28 27 27 26 26 25 24 24 23 23 23 23 22 22 24 25
12 11 13 13 14 14 14 15 16 17 22 26 27 28 29 31 31 32 31 31 30 30 30 30 30 29 29 29 27 27 27 26 26 25 24 24 23 23 23 23 22 22 23 24
11 12 12 12 15 14 14 16 16 17 19 23 26 28 28 28 29 29 30 27 28 28 29 30 30 30 29 29 27 26 26 26 25 24 24 24 23 23 23 22 22 22 22 23
10 10 11 13 15 15 15 17 18 19 22 24 26 28 23 25 26 24 24 24 24 25 26 26 29 30 30 29 28 26 26 25 25 24 24 24 23 23 22 22 22 22 22 22
10 9 10 12 12 13 19 21 21 21 19 21 24 22 23 24 24 23 21 21 22 23 24 25 26 29 29 29 29 27 26 25 24 24 24 24 23 23 22 22 22 22 23 22
12 9 10 10 12 13 18 19 21 22 18 18 19 21 22 23 24 25 21 19 20 21 22 24 25 28 30 29 29 27 26 25 25 24 24 24 23 23 23 22 22 22 22 22
11 10 9 10 11 14 15 16 17 18 19 16 18 19 21 24 26 23 18 18 20 21 24 25 26 30 29 29 28 27 26 25 25 25 24 24 23 23 23 23 22 22 22 23
9 9 9 10 10 10 13 15 17 19 17 15 16 16 19 19 18 17 18 18 19 20 23 25 29 29 28 28 28 26 26 26 26 25 25 24 23 23 23 23 23 23 23 23
9 10 10 10 10 11 11 15 16 15 14 14 14 15 18 18 17 17 17 17 18 19 21 24 26 28 27 27 27 26 26 26 25 25 24 23 23 24 24 23 23 23 23 23
10 8 10 9 10 8 11 13 14 14 13 13 13 14 16 17 17 17 16 17 17 18 20 22 24 23 25 26 26 26 25 24 24 24 24 24 23 23 24 23 23 23 23 24
9 8 8 9 9 10 12 12 13 13 12 13 13 14 15 16 17 17 16 16 17 17 18 20 22 22 22 22 23 23 23 24 24 24 24 24 24 23 24 24 24 24 25 25
8 9 8 9 9 10 11 11 11 12 12 12 12 13 13 14 15 17 17 17 16 16 17 18 19 21 21 21 21 21 21 23 24 24 24 24 24 23 24 25 25 25 25 26
8 8 8 9 9 9 10 11 11 11 11 12 12 12 12 13 14 16 17 17 17 17 17 17 18 19 20 20 20 19 19 21 23 25 25 25 26 24 25 21 19 22 23 23

GFSCGP_925_temp_048.txt.gz
Temp
27 27 28 30 30 32 31 33 33 34 35 33 34 35 35 32 33 31 31 30 29 29 29 28 27 27 27 26 25 24 24 24 23 24 24 25 25 25 25 25 24 24 24 24
27 27 30 30 30 30 30 30 32 34 34 34 35 35 36 34 33 32 31 30 30 30 30 28 27 27 27 26 25 24 24 24 23 24 25 26 26 26 26 26 25 24 24 24
28 30 30 29 28 28 29 30 31 32 32 33 34 34 35 36 34 33 32 32 31 31 30 29 28 28 27 27 25 25 24 23 23 24 24 24 25 25 25 25 25 25 24 24
28 30 28 28 28 29 29 31 30 31 31 31 34 33 35 36 34 33 33 32 32 31 31 30 29 28 28 27 26 25 24 23 23 23 25 24 26 26 27 27 27 26 24 24
28 27 28 27 28 30 29 31 30 30 30 31 32 32 35 36 35 34 34 34 33 32 31 31 30 28 28 27 26 25 24 23 24 23 25 24 25 27 27 27 26 26 24 24
27 27 27 29 29 29 29 29 29 30 30 30 32 33 34 36 36 36 35 35 34 33 32 32 30 29 28 28 27 26 24 23 23 23 23 24 25 27 27 26 26 26 26 25
26 26 27 28 28 30 29 29 28 28 29 30 33 32 33 36 37 37 37 36 35 34 33 32 31 30 29 28 27 27 25 24 23 24 23 24 24 25 26 25 26 27 27 27
26 26 26 24 27 29 28 29 30 28 31 32 33 32 34 35 36 37 37 38 36 35 34 33 32 30 29 28 27 27 26 24 24 24 24 23 24 25 25 25 27 27 27 27
24 25 24 24 24 26 28 28 31 31 32 33 34 33 35 36 35 36 36 37 37 35 35 33 33 31 30 29 28 27 26 25 25 25 24 24 24 24 26 26 26 26 26 27
21 22 23 23 24 25 26 31 29 29 27 29 32 33 33 34 34 35 36 36 37 36 35 34 33 32 30 29 28 27 26 25 25 25 25 25 25 24 25 25 25 26 26 25
20 20 22 22 24 27 27 26 27 30 30 29 30 32 35 35 35 34 36 37 37 36 35 35 34 33 31 30 29 28 27 26 26 26 25 25 25 25 25 25 25 25 25 25
19 19 19 22 25 24 24 24 27 28 27 30 31 33 36 35 35 36 36 37 38 38 36 36 35 33 32 31 30 29 28 27 26 26 25 25 26 25 26 25 25 25 24 25
18 18 18 22 23 23 22 25 25 26 27 27 29 30 34 34 34 35 36 37 37 37 37 36 36 35 33 32 31 31 29 29 28 27 26 26 26 26 26 25 25 25 24 24
16 18 18 20 22 21 20 21 24 25 25 27 28 29 33 33 34 34 35 35 37 37 36 36 36 36 34 33 31 31 31 30 30 28 28 27 26 26 26 25 25 25 24 24
16 14 17 18 18 19 19 20 21 21 22 23 27 29 31 33 33 34 35 35 34 34 35 35 35 35 34 32 32 30 31 30 31 29 29 28 26 26 26 25 25 25 25 25
16 15 16 17 18 18 18 20 21 21 21 22 23 25 29 33 33 33 34 35 34 33 34 34 34 34 34 32 31 30 30 30 30 30 29 28 26 26 25 25 25 24 25 25
14 14 15 15 18 19 18 19 20 21 22 22 22 26 30 32 31 33 33 33 32 31 31 32 33 34 34 32 31 30 29 29 29 29 28 28 26 25 25 25 25 24 24 25
14 13 13 15 17 15 19 21 22 22 23 23 24 26 28 30 30 29 27 27 27 28 28 29 31 32 32 33 32 31 30 29 28 28 27 27 26 25 25 25 25 24 25 25
15 12 12 12 14 16 17 19 21 22 23 23 25 26 29 30 30 27 25 24 24 25 25 26 27 29 30 31 33 31 30 28 28 27 27 26 26 25 25 25 25 25 25 25
14 13 11 13 12 13 17 11 12 17 20 22 23 27 29 29 29 30 22 22 22 23 24 24 26 28 29 29 32 32 30 29 28 27 27 26 26 25 25 25 25 25 25 25
13 11 11 12 12 14 15 12 11 13 20 20 20 19 22 28 22 19 19 19 20 20 21 24 27 28 29 29 32 32 30 29 28 27 27 26 26 25 25 25 25 25 25 26
11 11 11 11 11 11 11 9 11 15 15 14 15 18 19 18 18 18 18 17 17 18 22 28 30 30 31 31 31 31 29 29 28 27 27 26 26 26 26 25 25 25 25 25
10 10 10 9 11 10 8 8 11 13 12 12 14 17 18 18 17 17 17 16 17 17 19 24 29 30 30 30 30 29 28 27 27 27 27 26 26 26 27 25 25 25 25 27
8 7 8 8 9 7 9 10 11 11 11 12 14 14 16 17 18 17 17 16 16 16 17 19 22 24 27 28 28 28 27 27 27 27 27 26 26 26 26 26 26 27 27 27
7 8 8 8 7 8 10 10 10 11 11 12 13 13 13 16 17 17 16 16 16 15 15 16 18 21 21 22 22 23 26 26 26 27 27 27 27 25 26 27 26 28 28 29
9 8 8 9 8 8 8 10 10 11 11 11 12 12 14 14 15 16 16 16 16 15 15 16 16 18 20 20 21 22 23 24 26 26 27 28 28 27 27 27 24 23 21 24

GFSCGP_925_temp_051.txt.gz
Temp
29 29 30 32 33 34 36 37 36 38 38 36 35 32 25 36 36 34 33 33 32 32 32 31 30 30 29 28 27 26 26 26 25 25 25 27 27 27 27 27 26 25 26 25
30 30 32 33 34 33 34 34 36 38 38 36 35 34 35 36 36 35 34 33 33 33 32 31 30 30 30 28 27 26 26 25 25 25 26 27 28 28 28 28 26 26 26 25
31 32 32 33 33 32 33 33 35 35 36 36 34 33 35 35 37 36 36 35 34 33 33 32 30 30 30 29 27 26 25 25 24 26 26 26 27 28 27 28 27 26 26 25
31 33 32 32 32 33 32 34 34 35 34 34 35 32 33 35 36 36 36 35 35 34 33 32 31 30 30 29 28 26 25 25 24 25 26 26 27 28 28 28 28 27 26 26
30 31 32 31 32 32 32 34 34 34 34 34 35 34 35 37 31 36 36 36 36 35 34 33 32 30 30 30 28 27 25 25 25 24 26 26 26 28 28 29 28 28 26 26
30 32 32 32 32 32 33 33 33 33 34 32 34 35 36 36 36 36 38 37 36 35 35 34 32 31 30 30 29 28 26 24 24 24 24 26 26 28 29 28 28 28 27 26
29 30 30 31 31 32 31 31 30 30 31 31 35 35 36 39 37 38 39 38 37 36 35 34 33 32 31 30 29 28 26 25 24 24 24 25 26 26 27 28 28 28 29 29
29 29 30 31 30 31 31 31 32 30 32 34 35 35 36 38 40 30 32 37 38 37 36 35 34 32 31 31 30 29 27 25 24 24 24 24 25 26 26 27 28 28 29 29
28 29 29 29 30 31 31 31 33 33 35 35 37 36 38 39 38 39 38 38 36 38 37 36 35 33 32 31 30 29 28 26 25 25 24 24 24 25 27 27 27 28 28 29
27 25 30 29 28 28 28 32 31 31 30 31 35 36 36 37 37 38 38 38 38 38 38 38 36 34 33 31 30 29 28 27 26 26 25 25 25 24 26 27 27 27 28 28
25 24 27 28 26 28 29 28 29 31 32 31 32 35 39 38 37 37 38 38 39 39 39 38 37 35 33 32 31 30 29 28 26 26 26 26 25 25 25 26 26 26 27 27
24 24 25 26 28 30 30 29 30 29 29 32 33 34 39 39 38 38 38 38 39 39 39 38 38 36 35 33 32 31 30 29 27 27 26 26 26 26 26 25 26 26 26 26
22 22 22 24 26 27 26 28 28 30 31 30 32 33 38 38 37 37 37 38 38 39 39 39 38 37 36 34 33 32 31 30 29 27 27 27 27 26 27 26 26 26 26 25
19 21 22 24 25 24 26 26 28 28 28 29 31 32 35 35 35 36 36 38 38 38 39 39 38 38 36 35 34 33 32 31 30 29 28 28 27 27 27 27 26 26 26 25
19 18 20 21 22 22 23 24 25 25 26 27 30 30 32 34 33 35 37 37 37 38 38 39 39 38 36 35 34 33 32 32 32 30 30 29 28 27 27 27 27 26 26 25
19 17 18 19 22 22 22 23 23 24 25 25 26 27 30 30 31 32 33 36 36 36 36 37 38 38 37 36 34 33 32 32 32 31 30 30 28 27 27 27 27 26 26 26
17 17 17 17 21 21 20 22 23 23 24 25 24 26 28 28 29 30 33 35 35 36 36 36 36 37 37 36 34 34 32 32 32 31 30 30 28 27 27 27 26 26 26 26
16 15 15 15 18 16 22 24 24 24 25 25 25 26 27 28 29 30 32 32 32 33 34 33 34 35 36 36 36 34 33 31 32 31 31 30 29 27 27 27 27 26 26 26
18 16 13 14 16 18 21 22 22 17 18 20 20 23 27 28 29 28 31 30 29 29 30 30 31 32 33 34 36 34 33 31 31 31 30 30 29 28 27 27 26 26 26 26
18 18 12 15 14 15 20 22 17 16 17 21 22 22 26 28 27 29 29 29 28 28 28 28 29 29 30 31 33 35 33 32 31 31 30 29 29 28 27 27 26 26 26 26
14 13 12 14 14 16 19 17 16 13 18 19 18 24 27 28 29 30 24 24 24 25 25 25 26 28 29 30 31 33 34 33 31 30 30 29 28 28 27 27 26 26 26 28
13 13 12 13 13 13 14 14 12 16 11 10 15 27 27 27 24 22 20 21 21 21 22 23 27 30 30 30 31 32 33 33 31 30 29 29 28 28 27 27 26 26 26 26
11 12 11 12 13 13 12 10 11 9 9 10 14 22 24 22 21 20 18 19 19 18 19 20 24 31 32 31 30 31 31 32 30 29 29 28 27 27 28 26 26 26 26 27
9 8 8 8 10 10 10 8 9 9 9 11 12 17 21 19 19 17 17 16 16 16 16 17 20 26 25 29 31 31 31 30 29 28 28 28 27 27 27 27 27 27 28 28
8 8 8 8 8 7 9 10 9 10 11 11 12 13 15 17 17 16 16 16 15 15 14 15 16 19 19 21 23 28 29 29 28 28 28 28 27 27 27 28 28 29 27 28
9 8 8 8 7 8 8 8 9 10 10 11 12 12 12 14 15 16 15 14 14 14 14 14 16 16 16 17 17 18 22 27 28 28 28 28 29 28 28 24 23 25 24 24

GFSCGP_925_temp_054.txt.gz
Temp
30 30 29 31 32 34 35 35 36 37 39 37 34 27 28 27 26 31 33 33 32 31 32 32 32 31 30 29 28 27 27 26 25 25 25 26 26 26 26 26 26 25 25 25
30 29 31 33 34 34 34 34 36 38 39 39 32 27 27 27 26 29 34 33 33 33 32 32 32 31 30 28 27 27 27 25 25 25 25 26 27 27 27 26 26 26 26 25
30 32 33 33 33 33 34 34 35 36 38 39 38 27 25 27 29 24 35 34 34 33 33 32 32 31 31 28 27 26 26 25 25 25 26 26 27 28 27 26 26 26 26 26
31 32 33 33 33 34 33 35 35 35 36 35 37 34 27 28 28 22 23 35 34 34 34 32 32 31 31 29 27 26 26 25 25 25 26 26 27 27 28 27 27 27 26 26
31 32 32 33 33 34 33 35 35 34 34 35 36 35 36 32 27 22 24 35 35 34 34 33 32 31 31 29 27 26 26 25 25 25 26 26 26 27 28 28 27 26 26 26
31 34 34 33 34 34 35 34 34 34 34 33 34 35 35 36 30 26 24 28 32 35 34 33 32 31 31 30 28 27 25 25 25 25 25 26 26 27 28 28 27 26 26 26
29 30 32 33 32 34 33 32 30 30 31 32 35 34 35 38 36 28 27 23 25 36 35 34 32 31 31 30 29 27 25 24 24 24 25 25 26 27 27 28 28 27 27 26
29 29 31 32 31 31 32 32 31 29 31 32 35 33 35 38 39 34 29 27 27 36 36 35 33 32 31 31 30 28 26 24 24 24 24 24 26 26 26 27 28 28 28 28
28 29 32 33 32 32 31 32 33 32 34 33 35 36 37 39 39 38 31 32 26 28 34 35 34 33 31 31 30 29 27 25 25 24 24 24 25 26 26 27 28 28 28 28
26 25 30 31 31 32 31 32 31 32 29 30 33 35 36 37 38 38 32 30 28 26 23 31 35 33 32 31 30 29 28 25 25 24 24 24 24 25 26 27 27 27 28 28
25 25 27 30 29 29 29 29 29 30 31 31 31 33 38 38 38 38 32 30 32 30 26 24 22 34 33 31 31 30 29 26 25 25 25 25 24 25 25 26 27 27 28 27
25 25 25 27 30 30 29 29 30 29 28 30 31 33 38 38 39 39 39 39 33 32 26 23 21 22 34 32 32 31 30 28 26 25 25 25 25 24 25 26 26 27 27 27
23 23 22 24 27 29 28 29 30 31 31 29 30 32 37 38 38 39 39 39 38 30 26 25 21 23 35 33 32 32 30 29 28 26 26 25 25 25 25 25 26 26 26 26
21 21 22 23 26 25 26 28 28 29 29 29 31 32 34 32 30 31 34 35 38 37 28 25 28 27 35 34 33 32 31 30 30 27 27 26 25 26 25 25 25 26 26 26
20 19 20 21 22 23 24 24 26 27 28 28 30 31 33 27 28 29 31 32 33 37 37 37 37 27 30 33 33 32 32 31 31 29 28 27 26 26 26 26 25 25 26 26
21 19 19 19 21 22 22 24 25 26 28 28 29 29 31 31 30 30 31 31 30 31 35 35 33 36 34 34 33 32 32 32 31 30 29 28 27 26 26 26 26 25 25 26
18 18 17 17 20 20 20 23 24 25 26 26 25 28 29 29 29 29 29 28 29 29 27 36 35 33 29 35 33 32 32 32 31 31 30 29 28 27 26 26 26 26 25 26
18 17 15 15 17 15 20 23 24 24 25 26 26 26 27 27 28 28 29 28 29 28 25 32 35 35 32 30 29 34 32 32 31 31 30 29 28 27 27 26 26 26 26 25
20 18 13 14 15 17 20 22 23 21 23 25 23 24 25 26 26 25 28 29 29 27 28 31 31 32 31 30 31 34 33 32 31 30 30 29 29 28 27 26 26 26 26 26
18 19 15 15 14 15 19 22 20 20 19 23 23 23 23 24 23 24 26 28 27 23 29 29 29 30 30 30 31 31 33 32 31 31 30 30 29 28 27 27 26 26 26 26
14 15 13 13 14 17 20 21 19 16 18 19 18 18 18 18 20 21 22 25 27 23 25 25 25 27 27 28 29 30 30 33 32 31 31 30 29 29 28 27 26 26 26 26
11 12 13 13 13 13 15 16 16 16 16 15 15 15 16 17 18 19 20 25 24 23 23 23 24 25 26 28 28 28 29 30 32 31 30 30 30 29 28 27 26 26 26 26
11 10 10 10 12 12 14 12 12 12 12 14 13 14 14 14 16 15 23 22 21 19 19 19 21 23 27 24 27 29 29 30 31 31 30 30 29 29 29 28 26 26 26 26
11 8 8 8 12 11 10 10 10 10 10 10 10 12 12 13 14 19 19 17 16 16 16 16 18 20 20 19 21 27 29 30 30 30 29 29 29 28 28 28 27 26 26 26
8 8 8 8 8 8 9 8 8 9 9 9 10 12 12 12 16 17 16 15 15 15 15 15 16 16 16 17 19 20 21 27 30 29 29 29 28 28 27 28 27 27 27 27
8 8 8 8 7 6 7 7 7 7 9 10 11 11 12 12 15 15 15 14 14 14 14 14 14 14 14 14 17 18 19 21 29 29 29 28 29 28 27 27 24 26 28 28